Time,TemperatureF,DewpointF,PressureIn,WindDirection,WindDirectionDegrees,WindSpeedMPH,WindSpeedGustMPH,Humidity,HourlyPrecipIn,Conditions,Clouds,dailyrainin,SoftwareType,DateUTC
2013-01-31 00:00:00,70.2,67.1,29.92,South,178,3.0,6.0,90,0.00,,---,0.00,VWS V14.01,2013-01-31 05:00:00,
2013-01-31 00:01:00,70.2,67.1,29.92,South,191,4.0,6.0,90,0.00,,---,0.00,VWS V14.01,2013-01-31 05:01:00,
2013-01-31 00:05:00,69.9,65.9,29.96,North,360,4.0,9.0,87,0.00,,---,0.00,VWS V14.01,2013-01-31 05:05:00,
2013-01-31 00:06:00,69.0,64.0,29.96,WNW,286,2.0,6.0,84,0.00,,---,0.00,VWS V14.01,2013-01-31 05:06:00,
2013-01-31 00:07:00,68.8,63.8,29.97,WNW,291,3.0,6.0,84,0.00,,---,0.00,VWS V14.01,2013-01-31 05:07:00,
2013-01-31 00:58:00,57.9,56.2,29.99,West,259,2.0,4.0,94,0.05,,---,0.05,VWS V14.01,2013-01-31 05:58:00,
2013-01-31 00:59:00,57.9,56.2,29.99,West,281,2.0,4.0,94,0.05,,---,0.05,VWS V14.01,2013-01-31 05:59:00,
2013-01-31 01:03:00,57.8,56.1,29.98,WNW,282,1.0,4.0,94,0.05,,---,0.05,VWS V14.01,2013-01-31 06:03:00,
2013-01-31 01:04:00,57.8,56.1,29.98,WNW,282,0.0,4.0,94,0.05,,---,0.05,VWS V14.01,2013-01-31 06:04:00,
2013-01-31 01:09:00,57.9,56.5,29.99,WNW,290,0.0,3.0,95,0.05,,---,0.05,VWS V14.01,2013-01-31 06:09:00,
2013-01-31 01:10:00,57.9,56.5,29.99,WNW,298,2.0,3.0,95,0.06,,---,0.06,VWS V14.01,2013-01-31 06:10:00,
2013-01-31 01:14:00,58.0,56.6,29.99,WNW,286,0.0,2.0,95,0.06,,---,0.06,VWS V14.01,2013-01-31 06:14:00,
2013-01-31 01:15:00,58.0,56.6,29.99,WNW,286,0.0,2.0,95,0.06,,---,0.06,VWS V14.01,2013-01-31 06:15:00,
2013-01-31 01:16:00,58.0,56.6,29.99,WNW,286,0.0,2.0,95,0.06,,---,0.06,VWS V14.01,2013-01-31 06:16:00,
2013-01-31 01:20:00,58.1,57.0,29.99,WNW,286,0.0,1.0,96,0.05,,---,0.06,VWS V14.01,2013-01-31 06:20:00,
2013-01-31 01:21:00,58.1,57.0,29.99,WNW,286,0.0,1.0,96,0.05,,---,0.06,VWS V14.01,2013-01-31 06:21:00,
2013-01-31 01:22:00,58.1,57.0,29.99,WNW,286,0.0,0.0,96,0.04,,---,0.06,VWS V14.01,2013-01-31 06:22:00,
2013-01-31 01:26:00,58.2,57.1,29.99,WNW,300,0.0,2.0,96,0.05,,---,0.07,VWS V14.01,2013-01-31 06:26:00,
2013-01-31 01:27:00,58.2,57.1,29.99,WNW,300,1.0,1.0,96,0.05,,---,0.07,VWS V14.01,2013-01-31 06:27:00,
2013-01-31 01:31:00,58.2,56.8,29.99,WSW,244,0.0,3.0,95,0.05,,---,0.07,VWS V14.01,2013-01-31 06:31:00,
2013-01-31 01:32:00,58.2,56.8,29.99,WSW,244,2.0,2.0,95,0.04,,---,0.07,VWS V14.01,2013-01-31 06:32:00,
2013-01-31 01:34:00,58.1,56.7,29.99,WSW,248,0.0,2.0,95,0.05,,---,0.08,VWS V14.01,2013-01-31 06:34:00,
2013-01-31 01:36:00,58.1,57.0,29.99,WSW,248,0.0,2.0,96,0.05,,---,0.08,VWS V14.01,2013-01-31 06:36:00,
2013-01-31 01:37:00,58.2,57.1,29.99,WSW,248,0.0,1.0,96,0.04,,---,0.08,VWS V14.01,2013-01-31 06:37:00,
2013-01-31 01:40:00,58.2,57.1,29.99,WSW,245,0.0,1.0,96,0.04,,---,0.08,VWS V14.01,2013-01-31 06:40:00,
2013-01-31 01:41:00,58.2,57.1,29.99,WSW,245,0.0,1.0,96,0.04,,---,0.08,VWS V14.01,2013-01-31 06:41:00,
2013-01-31 01:43:00,58.1,57.0,29.99,West,273,1.0,2.0,96,0.05,,---,0.09,VWS V14.01,2013-01-31 06:43:00,
2013-01-31 01:44:00,58.1,57.0,29.99,West,273,1.0,2.0,96,0.05,,---,0.09,VWS V14.01,2013-01-31 06:44:00,
2013-01-31 01:46:00,58.1,57.0,29.99,West,273,0.0,0.0,96,0.06,,---,0.10,VWS V14.01,2013-01-31 06:46:00,
2013-01-31 01:49:00,58.1,57.0,29.99,West,273,1.0,1.0,96,0.07,,---,0.11,VWS V14.01,2013-01-31 06:49:00,
2013-01-31 01:52:00,58.0,56.9,29.99,West,273,0.0,0.0,96,0.07,,---,0.12,VWS V14.01,2013-01-31 06:52:00,
2013-01-31 01:54:00,58.0,56.9,29.99,West,273,0.0,1.0,96,0.07,,---,0.12,VWS V14.01,2013-01-31 06:54:00,
2013-01-31 01:55:00,58.0,56.9,29.99,West,273,0.0,1.0,96,0.08,,---,0.13,VWS V14.01,2013-01-31 06:55:00,
2013-01-31 01:58:00,58.0,56.9,29.99,West,273,0.0,1.0,96,0.09,,---,0.14,VWS V14.01,2013-01-31 06:58:00,
2013-01-31 01:59:00,58.0,56.9,29.99,West,273,0.0,1.0,96,0.09,,---,0.14,VWS V14.01,2013-01-31 06:59:00,
2013-01-31 02:00:00,58.0,56.9,29.99,West,273,0.0,1.0,96,0.10,,---,0.15,VWS V14.01,2013-01-31 07:00:00,
2013-01-31 02:04:00,58.0,56.9,29.98,West,273,0.0,1.0,96,0.11,,---,0.16,VWS V14.01,2013-01-31 07:04:00,
2013-01-31 02:05:00,58.0,56.9,29.99,West,273,0.0,1.0,96,0.11,,---,0.16,VWS V14.01,2013-01-31 07:05:00,
2013-01-31 02:06:00,58.1,57.0,29.99,West,273,0.0,1.0,96,0.11,,---,0.16,VWS V14.01,2013-01-31 07:06:00,
2013-01-31 02:11:00,58.1,57.3,29.98,West,273,0.0,1.0,97,0.11,,---,0.16,VWS V14.01,2013-01-31 07:11:00,
2013-01-31 02:16:00,58.2,57.4,29.98,West,273,0.0,0.0,97,0.10,,---,0.16,VWS V14.01,2013-01-31 07:16:00,
2013-01-31 02:17:00,58.2,57.4,29.98,West,273,0.0,0.0,97,0.10,,---,0.16,VWS V14.01,2013-01-31 07:17:00,
2013-01-31 02:21:00,58.3,57.5,29.98,West,273,0.0,0.0,97,0.10,,---,0.16,VWS V14.01,2013-01-31 07:21:00,
2013-01-31 02:22:00,58.3,57.5,29.98,West,273,0.0,0.0,97,0.10,,---,0.16,VWS V14.01,2013-01-31 07:22:00,
2013-01-31 02:23:00,58.3,57.5,29.99,West,273,0.0,0.0,97,0.10,,---,0.16,VWS V14.01,2013-01-31 07:23:00,
2013-01-31 02:27:00,58.4,57.6,29.99,West,273,0.0,0.0,97,0.09,,---,0.16,VWS V14.01,2013-01-31 07:27:00,
2013-01-31 02:29:00,58.5,57.7,29.99,West,273,0.0,0.0,97,0.09,,---,0.16,VWS V14.01,2013-01-31 07:29:00,
2013-01-31 02:32:00,58.5,57.7,29.99,West,273,0.0,0.0,97,0.09,,---,0.16,VWS V14.01,2013-01-31 07:32:00,
2013-01-31 02:33:00,58.5,57.7,29.99,West,273,0.0,0.0,97,0.09,,---,0.16,VWS V14.01,2013-01-31 07:33:00,
2013-01-31 02:34:00,58.5,57.7,29.99,West,273,0.0,0.0,97,0.09,,---,0.16,VWS V14.01,2013-01-31 07:34:00,
2013-01-31 02:38:00,58.6,57.8,29.99,West,273,0.0,0.0,97,0.08,,---,0.16,VWS V14.01,2013-01-31 07:38:00,
2013-01-31 02:40:00,58.5,57.7,29.98,West,273,0.0,0.0,97,0.08,,---,0.16,VWS V14.01,2013-01-31 07:40:00,
2013-01-31 02:41:00,58.6,57.8,29.98,West,273,0.0,0.0,97,0.08,,---,0.16,VWS V14.01,2013-01-31 07:41:00,
2013-01-31 02:44:00,58.6,57.8,29.99,West,273,0.0,0.0,97,0.08,,---,0.16,VWS V14.01,2013-01-31 07:44:00,
2013-01-31 02:45:00,58.6,57.8,29.99,West,273,0.0,0.0,97,0.08,,---,0.16,VWS V14.01,2013-01-31 07:45:00,
2013-01-31 02:46:00,58.6,57.8,29.99,West,273,0.0,0.0,97,0.08,,---,0.16,VWS V14.01,2013-01-31 07:46:00,
2013-01-31 02:50:00,58.6,57.8,29.99,West,273,0.0,0.0,97,0.06,,---,0.16,VWS V14.01,2013-01-31 07:50:00,
2013-01-31 02:51:00,58.6,57.8,29.99,West,273,0.0,0.0,97,0.06,,---,0.16,VWS V14.01,2013-01-31 07:51:00,
2013-01-31 02:52:00,58.6,57.8,29.99,West,273,0.0,0.0,97,0.05,,---,0.16,VWS V14.01,2013-01-31 07:52:00,
2013-01-31 02:55:00,58.7,57.8,29.99,West,273,0.0,0.0,97,0.05,,---,0.16,VWS V14.01,2013-01-31 07:55:00,
2013-01-31 02:56:00,58.7,57.8,29.99,West,273,0.0,0.0,97,0.05,,---,0.16,VWS V14.01,2013-01-31 07:56:00,
2013-01-31 02:57:00,58.7,57.8,29.99,West,273,0.0,0.0,97,0.03,,---,0.16,VWS V14.01,2013-01-31 07:57:00,
2013-01-31 03:00:00,58.8,58.0,29.99,West,273,0.0,0.0,97,0.03,,---,0.16,VWS V14.01,2013-01-31 08:00:00,
2013-01-31 03:01:00,58.8,58.0,29.99,West,273,0.0,0.0,97,0.01,,---,0.16,VWS V14.01,2013-01-31 08:01:00,
2013-01-31 03:02:00,58.8,58.0,29.99,West,273,0.0,0.0,97,0.01,,---,0.16,VWS V14.01,2013-01-31 08:02:00,
2013-01-31 03:06:00,58.8,58.0,29.99,West,273,0.0,0.0,97,0.00,,---,0.16,VWS V14.01,2013-01-31 08:06:00,
2013-01-31 03:07:00,58.8,58.0,29.99,West,273,0.0,0.0,97,0.00,,---,0.16,VWS V14.01,2013-01-31 08:07:00,
2013-01-31 03:08:00,58.9,58.0,29.99,West,273,0.0,0.0,97,0.00,,---,0.16,VWS V14.01,2013-01-31 08:08:00,
2013-01-31 03:12:00,58.9,58.0,29.99,West,273,0.0,0.0,97,0.00,,---,0.16,VWS V14.01,2013-01-31 08:12:00,
2013-01-31 03:13:00,58.9,58.0,29.99,West,273,0.0,0.0,97,0.00,,---,0.16,VWS V14.01,2013-01-31 08:13:00,
2013-01-31 03:15:00,58.9,58.0,29.99,West,273,0.0,0.0,97,0.00,,---,0.16,VWS V14.01,2013-01-31 08:15:00,
2013-01-31 03:17:00,59.0,58.2,30.00,West,273,0.0,0.0,97,0.00,,---,0.16,VWS V14.01,2013-01-31 08:17:00,
2013-01-31 03:18:00,59.0,58.2,30.00,West,273,0.0,0.0,97,0.00,,---,0.16,VWS V14.01,2013-01-31 08:18:00,
2013-01-31 03:19:00,59.0,58.2,30.00,West,273,0.0,0.0,97,0.00,,---,0.16,VWS V14.01,2013-01-31 08:19:00,
2013-01-31 03:20:00,59.0,58.2,30.00,West,273,0.0,0.0,97,0.00,,---,0.16,VWS V14.01,2013-01-31 08:20:00,
2013-01-31 03:22:00,59.0,58.2,30.00,West,273,0.0,0.0,97,0.00,,---,0.16,VWS V14.01,2013-01-31 08:22:00,
2013-01-31 03:23:00,59.0,58.2,30.00,West,273,0.0,0.0,97,0.00,,---,0.16,VWS V14.01,2013-01-31 08:23:00,
2013-01-31 03:24:00,59.0,58.2,30.00,West,273,0.0,0.0,97,0.00,,---,0.16,VWS V14.01,2013-01-31 08:24:00,
2013-01-31 03:25:00,59.0,58.2,30.00,West,273,0.0,0.0,97,0.00,,---,0.16,VWS V14.01,2013-01-31 08:25:00,
2013-01-31 03:29:00,59.1,58.2,30.00,West,273,0.0,0.0,97,0.00,,---,0.16,VWS V14.01,2013-01-31 08:29:00,
2013-01-31 03:31:00,59.1,58.2,30.00,West,273,0.0,0.0,97,0.00,,---,0.16,VWS V14.01,2013-01-31 08:31:00,
2013-01-31 03:34:00,59.1,58.2,30.00,West,273,0.0,0.0,97,0.00,,---,0.16,VWS V14.01,2013-01-31 08:34:00,
2013-01-31 03:35:00,59.1,58.2,30.00,West,273,0.0,0.0,97,0.00,,---,0.16,VWS V14.01,2013-01-31 08:35:00,
2013-01-31 03:36:00,59.1,58.2,30.00,West,273,0.0,0.0,97,0.00,,---,0.16,VWS V14.01,2013-01-31 08:36:00,
2013-01-31 03:37:00,59.2,58.3,30.00,West,273,0.0,0.0,97,0.00,,---,0.16,VWS V14.01,2013-01-31 08:37:00,
2013-01-31 03:40:00,59.2,58.3,29.99,West,273,0.0,0.0,97,0.00,,---,0.16,VWS V14.01,2013-01-31 08:40:00,
2013-01-31 03:42:00,59.2,58.3,29.99,West,273,0.0,0.0,97,0.00,,---,0.16,VWS V14.01,2013-01-31 08:42:00,
2013-01-31 03:44:00,59.2,58.3,29.99,West,273,0.0,0.0,97,0.00,,---,0.16,VWS V14.01,2013-01-31 08:44:00,
2013-01-31 03:47:00,59.2,58.3,30.00,West,273,0.0,0.0,97,0.00,,---,0.16,VWS V14.01,2013-01-31 08:47:00,
2013-01-31 03:52:00,59.2,58.3,30.00,West,273,0.0,0.0,97,0.00,,---,0.16,VWS V14.01,2013-01-31 08:52:00,
2013-01-31 03:53:00,59.3,58.5,30.00,West,273,0.0,0.0,97,0.00,,---,0.16,VWS V14.01,2013-01-31 08:53:00,
2013-01-31 03:54:00,59.2,58.3,30.00,West,273,0.0,0.0,97,0.00,,---,0.16,VWS V14.01,2013-01-31 08:54:00,
2013-01-31 03:57:00,59.2,58.3,30.00,West,273,0.0,0.0,97,0.00,,---,0.16,VWS V14.01,2013-01-31 08:57:00,
2013-01-31 03:58:00,59.3,58.5,30.00,West,273,0.0,0.0,97,0.00,,---,0.16,VWS V14.01,2013-01-31 08:58:00,
2013-01-31 03:59:00,59.3,58.5,30.00,West,273,0.0,0.0,97,0.00,,---,0.16,VWS V14.01,2013-01-31 08:59:00,
2013-01-31 04:02:00,59.3,58.5,30.00,West,273,0.0,0.0,97,0.00,,---,0.16,VWS V14.01,2013-01-31 09:02:00,
2013-01-31 04:03:00,59.3,58.5,30.00,West,273,0.0,0.0,97,0.00,,---,0.16,VWS V14.01,2013-01-31 09:03:00,
2013-01-31 04:05:00,59.3,58.5,30.00,West,273,0.0,0.0,97,0.00,,---,0.16,VWS V14.01,2013-01-31 09:05:00,
2013-01-31 04:08:00,59.3,58.5,30.00,West,273,0.0,0.0,97,0.00,,---,0.16,VWS V14.01,2013-01-31 09:08:00,
2013-01-31 04:10:00,59.3,58.5,30.00,West,273,0.0,0.0,97,0.00,,---,0.16,VWS V14.01,2013-01-31 09:10:00,
2013-01-31 04:13:00,59.3,58.5,30.00,West,273,0.0,0.0,97,0.00,,---,0.16,VWS V14.01,2013-01-31 09:13:00,
2013-01-31 04:14:00,59.3,58.5,30.00,West,273,0.0,0.0,97,0.00,,---,0.16,VWS V14.01,2013-01-31 09:14:00,
2013-01-31 04:15:00,59.3,58.5,30.00,West,273,0.0,0.0,97,0.00,,---,0.16,VWS V14.01,2013-01-31 09:15:00,
2013-01-31 04:18:00,59.4,58.5,30.00,West,273,0.0,1.0,97,0.00,,---,0.16,VWS V14.01,2013-01-31 09:18:00,
2013-01-31 04:20:00,59.4,58.5,30.00,West,273,0.0,1.0,97,0.00,,---,0.16,VWS V14.01,2013-01-31 09:20:00,
2013-01-31 04:21:00,59.5,58.7,30.01,West,273,0.0,1.0,97,0.00,,---,0.16,VWS V14.01,2013-01-31 09:21:00,
2013-01-31 04:25:00,59.4,58.5,30.01,SW,234,3.0,3.0,97,0.00,,---,0.16,VWS V14.01,2013-01-31 09:25:00,
2013-01-31 04:26:00,59.4,58.5,30.01,SW,233,1.0,3.0,97,0.00,,---,0.16,VWS V14.01,2013-01-31 09:26:00,
2013-01-31 04:31:00,59.3,58.5,30.00,West,276,1.0,2.0,97,0.00,,---,0.16,VWS V14.01,2013-01-31 09:31:00,
2013-01-31 04:32:00,59.2,58.1,30.00,West,276,1.0,2.0,96,0.00,,---,0.16,VWS V14.01,2013-01-31 09:32:00,
2013-01-31 04:36:00,58.7,57.3,30.00,WNW,284,1.0,2.0,95,0.00,,---,0.16,VWS V14.01,2013-01-31 09:36:00,
2013-01-31 04:37:00,58.7,57.3,30.01,WNW,284,1.0,2.0,95,0.00,,---,0.16,VWS V14.01,2013-01-31 09:37:00,
2013-01-31 04:38:00,58.7,57.3,30.00,WNW,284,1.0,2.0,95,0.00,,---,0.16,VWS V14.01,2013-01-31 09:38:00,
2013-01-31 04:42:00,58.8,57.1,30.00,NW,306,1.0,4.0,94,0.00,,---,0.16,VWS V14.01,2013-01-31 09:42:00,
2013-01-31 04:44:00,58.9,57.2,30.00,NW,306,1.0,4.0,94,0.00,,---,0.16,VWS V14.01,2013-01-31 09:44:00,
2013-01-31 04:47:00,59.0,57.3,30.01,NNW,333,2.0,3.0,94,0.00,,---,0.16,VWS V14.01,2013-01-31 09:47:00,
2013-01-31 04:48:00,59.0,57.0,30.00,NW,316,3.0,5.0,93,0.00,,---,0.16,VWS V14.01,2013-01-31 09:48:00,
2013-01-31 04:49:00,59.1,57.1,30.00,NW,307,3.0,6.0,93,0.00,,---,0.16,VWS V14.01,2013-01-31 09:49:00,
2013-01-31 04:50:00,59.1,57.1,30.00,NNW,338,1.0,6.0,93,0.00,,---,0.16,VWS V14.01,2013-01-31 09:50:00,
2013-01-31 04:53:00,59.3,57.0,30.00,WSW,246,1.0,4.0,92,0.00,,---,0.16,VWS V14.01,2013-01-31 09:53:00,
2013-01-31 04:54:00,59.3,57.0,30.01,NNW,333,2.0,4.0,92,0.00,,---,0.16,VWS V14.01,2013-01-31 09:54:00,
2013-01-31 04:56:00,59.3,57.0,30.01,North,5,5.0,5.0,92,0.00,,---,0.16,VWS V14.01,2013-01-31 09:56:00,
2013-01-31 04:59:00,59.4,56.8,30.01,NW,324,1.0,7.0,91,0.00,,---,0.16,VWS V14.01,2013-01-31 09:59:00,
2013-01-31 05:01:00,59.5,56.9,30.01,NNW,329,1.0,2.0,91,0.00,,---,0.16,VWS V14.01,2013-01-31 10:01:00,
2013-01-31 05:03:00,59.5,56.6,30.01,NW,304,4.0,4.0,90,0.00,,---,0.16,VWS V14.01,2013-01-31 10:03:00,
2013-01-31 05:04:00,59.5,56.6,30.01,NW,315,2.0,4.0,90,0.00,,---,0.16,VWS V14.01,2013-01-31 10:04:00,
2013-01-31 05:05:00,59.6,56.7,30.01,NW,315,2.0,4.0,90,0.00,,---,0.16,VWS V14.01,2013-01-31 10:05:00,
2013-01-31 05:07:00,59.6,56.7,30.01,NW,323,0.0,3.0,90,0.00,,---,0.16,VWS V14.01,2013-01-31 10:07:00,
2013-01-31 05:08:00,59.7,56.8,30.01,NW,323,1.0,3.0,90,0.00,,---,0.16,VWS V14.01,2013-01-31 10:08:00,
2013-01-31 05:09:00,59.6,56.7,30.02,NW,323,1.0,3.0,90,0.00,,---,0.16,VWS V14.01,2013-01-31 10:09:00,
2013-01-31 05:10:00,59.6,56.7,30.02,NW,324,1.0,3.0,90,0.00,,---,0.16,VWS V14.01,2013-01-31 10:10:00,
2013-01-31 05:13:00,59.7,56.8,30.02,NW,324,1.0,2.0,90,0.00,,---,0.16,VWS V14.01,2013-01-31 10:13:00,
2013-01-31 05:15:00,59.7,56.8,30.02,NNW,333,2.0,3.0,90,0.00,,---,0.16,VWS V14.01,2013-01-31 10:15:00,
2013-01-31 05:16:00,59.7,56.5,30.02,NNW,332,1.0,2.0,89,0.00,,---,0.16,VWS V14.01,2013-01-31 10:16:00,
2013-01-31 05:18:00,59.8,56.6,30.02,NNW,336,3.0,3.0,89,0.00,,---,0.16,VWS V14.01,2013-01-31 10:18:00,
2013-01-31 05:20:00,59.8,56.6,30.02,NNW,334,1.0,3.0,89,0.00,,---,0.16,VWS V14.01,2013-01-31 10:20:00,
2013-01-31 05:21:00,59.8,56.6,30.02,NNW,338,2.0,2.0,89,0.00,,---,0.16,VWS V14.01,2013-01-31 10:21:00,
2013-01-31 05:22:00,59.8,56.6,30.02,WSW,246,1.0,2.0,89,0.00,,---,0.16,VWS V14.01,2013-01-31 10:22:00,
2013-01-31 05:23:00,59.8,55.9,30.02,NW,307,1.0,4.0,87,0.00,,---,0.16,VWS V14.01,2013-01-31 10:23:00,
2013-01-31 05:25:00,59.9,56.0,30.02,NNW,336,3.0,4.0,87,0.00,,---,0.16,VWS V14.01,2013-01-31 10:25:00,
2013-01-31 05:27:00,59.9,56.0,30.02,NW,308,2.0,3.0,87,0.00,,---,0.16,VWS V14.01,2013-01-31 10:27:00,
2013-01-31 05:29:00,60.0,55.5,30.02,WNW,300,1.0,5.0,85,0.00,,---,0.16,VWS V14.01,2013-01-31 10:29:00,
2013-01-31 05:30:00,60.0,55.5,30.02,NW,314,3.0,5.0,85,0.00,,---,0.16,VWS V14.01,2013-01-31 10:30:00,
2013-01-31 05:32:00,60.0,55.2,30.02,NW,324,2.0,4.0,84,0.00,,---,0.16,VWS V14.01,2013-01-31 10:32:00,
2013-01-31 05:33:00,60.0,55.2,30.02,West,273,2.0,4.0,84,0.00,,---,0.16,VWS V14.01,2013-01-31 10:33:00,
2013-01-31 05:35:00,60.1,54.9,30.02,West,265,3.0,5.0,83,0.00,,---,0.16,VWS V14.01,2013-01-31 10:35:00,
2013-01-31 05:36:00,60.1,54.9,30.02,West,265,1.0,5.0,83,0.00,,---,0.16,VWS V14.01,2013-01-31 10:36:00,
2013-01-31 05:37:00,60.0,54.5,30.02,West,274,2.0,3.0,82,0.00,,---,0.16,VWS V14.01,2013-01-31 10:37:00,
2013-01-31 05:39:00,60.0,54.5,30.02,WNW,293,1.0,5.0,82,0.00,,---,0.16,VWS V14.01,2013-01-31 10:39:00,
2013-01-31 05:40:00,60.0,54.5,30.03,West,273,2.0,5.0,82,0.00,,---,0.16,VWS V14.01,2013-01-31 10:40:00,
2013-01-31 05:41:00,60.0,54.5,30.03,NW,313,3.0,3.0,82,0.00,,---,0.16,VWS V14.01,2013-01-31 10:41:00,
2013-01-31 05:43:00,60.0,54.2,30.03,WNW,285,3.0,4.0,81,0.00,,---,0.16,VWS V14.01,2013-01-31 10:43:00,
2013-01-31 05:45:00,60.0,54.5,30.03,WNW,284,1.0,7.0,82,0.00,,---,0.16,VWS V14.01,2013-01-31 10:45:00,
2013-01-31 05:46:00,60.0,54.2,30.03,WSW,250,2.0,2.0,81,0.00,,---,0.16,VWS V14.01,2013-01-31 10:46:00,
2013-01-31 05:49:00,59.9,54.1,30.03,WSW,252,0.0,4.0,81,0.00,,---,0.16,VWS V14.01,2013-01-31 10:49:00,
2013-01-31 05:50:00,59.9,54.4,30.03,WSW,250,0.0,4.0,82,0.00,,---,0.16,VWS V14.01,2013-01-31 10:50:00,
2013-01-31 05:51:00,59.9,54.4,30.03,NNW,336,3.0,4.0,82,0.00,,---,0.16,VWS V14.01,2013-01-31 10:51:00,
2013-01-31 05:52:00,59.8,54.3,30.03,NW,317,0.0,4.0,82,0.00,,---,0.16,VWS V14.01,2013-01-31 10:52:00,
2013-01-31 05:55:00,59.7,53.5,30.03,West,273,2.0,5.0,80,0.00,,---,0.16,VWS V14.01,2013-01-31 10:55:00,
2013-01-31 05:56:00,59.8,53.3,30.03,West,269,2.0,2.0,79,0.00,,---,0.16,VWS V14.01,2013-01-31 10:56:00,
2013-01-31 05:58:00,59.8,53.6,30.03,WNW,284,2.0,10.0,80,0.00,,---,0.16,VWS V14.01,2013-01-31 10:58:00,
2013-01-31 05:59:00,59.8,53.6,30.03,West,272,4.0,10.0,80,0.00,,---,0.16,VWS V14.01,2013-01-31 10:59:00,
2013-01-31 06:00:00,59.8,53.6,30.03,West,263,1.0,10.0,80,0.00,,---,0.16,VWS V14.01,2013-01-31 11:00:00,
2013-01-31 06:01:00,59.8,53.6,30.04,West,272,1.0,3.0,80,0.00,,---,0.16,VWS V14.01,2013-01-31 11:01:00,
2013-01-31 06:04:00,59.8,53.6,30.04,West,281,1.0,4.0,80,0.00,,---,0.16,VWS V14.01,2013-01-31 11:04:00,
2013-01-31 06:06:00,59.7,53.5,30.04,West,265,3.0,4.0,80,0.00,,---,0.16,VWS V14.01,2013-01-31 11:06:00,
2013-01-31 06:07:00,59.7,53.2,30.04,WSW,252,3.0,3.0,79,0.00,,---,0.16,VWS V14.01,2013-01-31 11:07:00,
2013-01-31 06:10:00,59.7,53.2,30.04,West,271,1.0,4.0,79,0.00,,---,0.16,VWS V14.01,2013-01-31 11:10:00,
2013-01-31 06:11:00,59.6,53.1,30.04,SSE,159,4.0,4.0,79,0.00,,---,0.16,VWS V14.01,2013-01-31 11:11:00,
2013-01-31 06:13:00,59.6,53.1,30.05,West,281,2.0,9.0,79,0.00,,---,0.16,VWS V14.01,2013-01-31 11:13:00,
2013-01-31 06:16:00,59.5,52.6,30.05,NW,325,2.0,9.0,78,0.00,,---,0.16,VWS V14.01,2013-01-31 11:16:00,
2013-01-31 06:17:00,59.5,52.6,30.05,SSE,162,3.0,4.0,78,0.00,,---,0.16,VWS V14.01,2013-01-31 11:17:00,
2013-01-31 06:19:00,59.4,52.9,30.05,WNW,284,2.0,4.0,79,0.00,,---,0.16,VWS V14.01,2013-01-31 11:19:00,
2013-01-31 06:21:00,59.4,52.9,30.06,WNW,284,2.0,2.0,79,0.00,,---,0.16,VWS V14.01,2013-01-31 11:21:00,
2013-01-31 06:22:00,59.4,52.9,30.06,SW,233,1.0,3.0,79,0.00,,---,0.16,VWS V14.01,2013-01-31 11:22:00,
2013-01-31 06:23:00,59.4,52.9,30.06,WSW,240,1.0,3.0,79,0.00,,---,0.16,VWS V14.01,2013-01-31 11:23:00,
2013-01-31 06:25:00,59.3,52.8,30.06,WNW,293,2.0,4.0,79,0.00,,---,0.16,VWS V14.01,2013-01-31 11:25:00,
2013-01-31 06:26:00,59.3,52.8,30.06,West,277,2.0,2.0,79,0.00,,---,0.16,VWS V14.01,2013-01-31 11:26:00,
2013-01-31 06:28:00,59.3,52.8,30.06,WNW,282,2.0,6.0,79,0.00,,---,0.16,VWS V14.01,2013-01-31 11:28:00,
2013-01-31 06:29:00,59.3,52.8,30.06,West,279,2.0,6.0,79,0.00,,---,0.16,VWS V14.01,2013-01-31 11:29:00,
2013-01-31 06:31:00,59.3,52.5,30.06,West,275,3.0,6.0,78,0.00,,---,0.16,VWS V14.01,2013-01-31 11:31:00,
2013-01-31 06:34:00,59.4,52.9,30.06,West,273,1.0,4.0,79,0.00,,---,0.16,VWS V14.01,2013-01-31 11:34:00,
2013-01-31 06:35:00,59.4,52.9,30.06,West,276,2.0,4.0,79,0.00,,---,0.16,VWS V14.01,2013-01-31 11:35:00,
2013-01-31 06:36:00,59.3,52.8,30.06,West,273,2.0,4.0,79,0.00,,---,0.16,VWS V14.01,2013-01-31 11:36:00,
2013-01-31 06:37:00,59.3,52.8,30.06,WNW,296,7.0,7.0,79,0.00,,---,0.16,VWS V14.01,2013-01-31 11:37:00,
2013-01-31 06:39:00,59.3,52.8,30.06,West,259,2.0,7.0,79,0.00,,---,0.16,VWS V14.01,2013-01-31 11:39:00,
2013-01-31 06:42:00,59.3,52.8,30.06,North,355,3.0,3.0,79,0.00,,---,0.16,VWS V14.01,2013-01-31 11:42:00,
2013-01-31 06:44:00,59.2,52.7,30.06,NNW,341,3.0,3.0,79,0.00,,---,0.16,VWS V14.01,2013-01-31 11:44:00,
2013-01-31 06:47:00,59.1,52.6,30.06,WNW,286,3.0,3.0,79,0.00,,---,0.16,VWS V14.01,2013-01-31 11:47:00,
2013-01-31 06:49:00,59.0,51.8,30.06,NNW,343,3.0,4.0,77,0.00,,---,0.16,VWS V14.01,2013-01-31 11:49:00,
2013-01-31 06:50:00,59.0,51.8,30.06,NW,314,0.0,4.0,77,0.00,,---,0.16,VWS V14.01,2013-01-31 11:50:00,
2013-01-31 06:52:00,58.9,51.7,30.06,North,349,2.0,4.0,77,0.00,,---,0.16,VWS V14.01,2013-01-31 11:52:00,
2013-01-31 06:54:00,58.9,52.1,30.07,West,274,2.0,4.0,78,0.00,,---,0.16,VWS V14.01,2013-01-31 11:54:00,
2013-01-31 06:55:00,58.9,52.1,30.07,WNW,286,2.0,5.0,78,0.00,,---,0.16,VWS V14.01,2013-01-31 11:55:00,
2013-01-31 06:58:00,58.9,52.4,30.07,WNW,296,3.0,7.0,79,0.00,,---,0.16,VWS V14.01,2013-01-31 11:58:00,
2013-01-31 06:59:00,58.9,52.8,30.07,WNW,296,2.0,7.0,80,0.00,,---,0.16,VWS V14.01,2013-01-31 11:59:00,
2013-01-31 07:00:00,58.9,52.8,30.07,WNW,296,1.0,7.0,80,0.00,,---,0.16,VWS V14.01,2013-01-31 12:00:00,
2013-01-31 07:04:00,59.0,52.8,30.07,North,355,2.0,5.0,80,0.00,,---,0.16,VWS V14.01,2013-01-31 12:04:00,
2013-01-31 07:05:00,58.9,52.8,30.08,NW,309,3.0,5.0,80,0.00,,---,0.16,VWS V14.01,2013-01-31 12:05:00,
2013-01-31 07:09:00,58.9,52.8,30.08,WNW,290,3.0,6.0,80,0.00,,---,0.16,VWS V14.01,2013-01-31 12:09:00,
2013-01-31 07:10:00,58.9,52.8,30.08,WNW,294,2.0,6.0,80,0.00,,---,0.16,VWS V14.01,2013-01-31 12:10:00,
2013-01-31 07:11:00,58.9,52.8,30.08,WNW,302,3.0,6.0,80,0.00,,---,0.16,VWS V14.01,2013-01-31 12:11:00,
2013-01-31 07:14:00,58.7,52.6,30.09,WNW,302,1.0,5.0,80,0.00,,---,0.16,VWS V14.01,2013-01-31 12:14:00,
2013-01-31 07:15:00,58.7,52.6,30.09,WNW,302,1.0,5.0,80,0.00,,---,0.16,VWS V14.01,2013-01-31 12:15:00,
2013-01-31 07:16:00,58.6,52.1,30.09,West,262,5.0,5.0,79,0.00,,---,0.16,VWS V14.01,2013-01-31 12:16:00,
2013-01-31 07:17:00,58.6,52.1,30.09,West,275,3.0,5.0,79,0.00,,---,0.16,VWS V14.01,2013-01-31 12:17:00,
2013-01-31 07:20:00,58.4,51.6,30.09,WNW,288,3.0,5.0,78,0.00,,---,0.16,VWS V14.01,2013-01-31 12:20:00,
2013-01-31 07:22:00,58.2,51.0,30.09,NNW,333,3.0,4.0,77,0.00,,---,0.16,VWS V14.01,2013-01-31 12:22:00,
2013-01-31 07:23:00,58.1,49.9,30.09,WNW,292,4.0,5.0,74,0.00,,---,0.16,VWS V14.01,2013-01-31 12:23:00,
2013-01-31 07:25:00,58.0,49.8,30.09,WNW,288,1.0,5.0,74,0.00,,---,0.16,VWS V14.01,2013-01-31 12:25:00,
2013-01-31 07:27:00,57.9,49.7,30.09,North,5,3.0,8.0,74,0.00,,---,0.16,VWS V14.01,2013-01-31 12:27:00,
2013-01-31 07:29:00,57.7,49.1,30.09,North,355,5.0,8.0,73,0.00,,---,0.16,VWS V14.01,2013-01-31 12:29:00,
2013-01-31 07:30:00,57.7,48.8,30.09,NW,304,1.0,8.0,72,0.00,,---,0.16,VWS V14.01,2013-01-31 12:30:00,
2013-01-31 07:32:00,57.5,48.6,30.09,WNW,291,4.0,4.0,72,0.00,,---,0.16,VWS V14.01,2013-01-31 12:32:00,
2013-01-31 07:34:00,57.5,47.8,30.09,WNW,302,2.0,4.0,70,0.00,,---,0.16,VWS V14.01,2013-01-31 12:34:00,
2013-01-31 07:36:00,57.3,47.6,30.09,WNW,301,3.0,4.0,70,0.00,,---,0.16,VWS V14.01,2013-01-31 12:36:00,
2013-01-31 07:37:00,57.3,46.5,30.09,West,272,3.0,4.0,67,0.00,,---,0.16,VWS V14.01,2013-01-31 12:37:00,
2013-01-31 07:38:00,57.2,46.4,30.09,NW,306,2.0,6.0,67,0.00,,---,0.16,VWS V14.01,2013-01-31 12:38:00,
2013-01-31 07:40:00,57.1,45.9,30.10,NW,321,2.0,8.0,66,0.00,,---,0.16,VWS V14.01,2013-01-31 12:40:00,
2013-01-31 07:42:00,57.1,46.3,30.09,NW,319,2.0,3.0,67,0.00,,---,0.16,VWS V14.01,2013-01-31 12:42:00,
2013-01-31 07:43:00,57.0,46.2,30.09,West,281,2.0,3.0,67,0.00,,---,0.16,VWS V14.01,2013-01-31 12:43:00,
2013-01-31 07:47:00,56.9,46.1,30.10,West,265,6.0,6.0,67,0.00,,---,0.16,VWS V14.01,2013-01-31 12:47:00,
2013-01-31 07:48:00,56.9,45.3,30.10,WNW,291,3.0,11.0,65,0.00,,---,0.16,VWS V14.01,2013-01-31 12:48:00,
2013-01-31 07:49:00,56.9,45.3,30.10,WNW,291,1.0,11.0,65,0.00,,---,0.16,VWS V14.01,2013-01-31 12:49:00,
2013-01-31 07:52:00,56.8,46.0,30.10,NNW,336,3.0,4.0,67,0.00,,---,0.16,VWS V14.01,2013-01-31 12:52:00,
2013-01-31 07:54:00,56.8,46.0,30.10,WNW,283,1.0,4.0,67,0.00,,---,0.16,VWS V14.01,2013-01-31 12:54:00,
2013-01-31 07:58:00,56.8,46.8,30.10,NNW,342,4.0,5.0,69,0.00,,---,0.16,VWS V14.01,2013-01-31 12:58:00,
2013-01-31 07:59:00,56.8,47.1,30.11,West,259,4.0,5.0,70,0.00,,---,0.16,VWS V14.01,2013-01-31 12:59:00,
2013-01-31 08:00:00,56.8,47.1,30.11,West,271,1.0,5.0,70,0.00,,---,0.16,VWS V14.01,2013-01-31 13:00:00,
2013-01-31 08:03:00,56.8,47.5,30.11,NNW,345,3.0,3.0,71,0.00,,---,0.16,VWS V14.01,2013-01-31 13:03:00,
2013-01-31 08:05:00,56.8,48.2,30.12,NW,309,4.0,4.0,73,0.00,,---,0.16,VWS V14.01,2013-01-31 13:05:00,
2013-01-31 08:08:00,56.8,48.2,30.12,West,269,3.0,6.0,73,0.00,,---,0.16,VWS V14.01,2013-01-31 13:08:00,
2013-01-31 08:10:00,56.8,48.2,30.12,NW,317,7.0,7.0,73,0.00,,---,0.16,VWS V14.01,2013-01-31 13:10:00,
2013-01-31 08:11:00,56.8,48.2,30.12,NW,306,6.0,7.0,73,0.00,,---,0.16,VWS V14.01,2013-01-31 13:11:00,
2013-01-31 08:12:00,56.8,47.9,30.12,WNW,288,1.0,3.0,72,0.00,,---,0.16,VWS V14.01,2013-01-31 13:12:00,
2013-01-31 08:14:00,56.8,47.9,30.12,West,273,4.0,4.0,72,0.00,,---,0.16,VWS V14.01,2013-01-31 13:14:00,
2013-01-31 08:16:00,56.8,47.5,30.12,WNW,290,5.0,5.0,71,0.00,,---,0.16,VWS V14.01,2013-01-31 13:16:00,
2013-01-31 08:18:00,56.7,46.7,30.12,WNW,294,1.0,5.0,69,0.00,,---,0.16,VWS V14.01,2013-01-31 13:18:00,
2013-01-31 08:19:00,56.7,46.7,30.13,WNW,294,3.0,5.0,69,0.00,,---,0.16,VWS V14.01,2013-01-31 13:19:00,
2013-01-31 08:22:00,56.6,46.6,30.13,WSW,242,2.0,3.0,69,0.00,,---,0.16,VWS V14.01,2013-01-31 13:22:00,
2013-01-31 08:23:00,56.6,46.6,30.13,West,272,2.0,4.0,69,0.00,,---,0.16,VWS V14.01,2013-01-31 13:23:00,
2013-01-31 08:25:00,56.6,46.2,30.13,West,273,2.0,5.0,68,0.00,,---,0.16,VWS V14.01,2013-01-31 13:25:00,
2013-01-31 08:28:00,56.6,46.6,30.13,NNW,339,4.0,4.0,69,0.00,,---,0.16,VWS V14.01,2013-01-31 13:28:00,
2013-01-31 08:29:00,56.6,46.2,30.13,NW,315,1.0,5.0,68,0.00,,---,0.16,VWS V14.01,2013-01-31 13:29:00,
2013-01-31 08:31:00,56.6,46.6,30.12,WNW,292,3.0,5.0,69,0.00,,---,0.16,VWS V14.01,2013-01-31 13:31:00,
2013-01-31 08:33:00,56.7,47.0,30.12,WNW,291,5.0,7.0,70,0.00,,---,0.16,VWS V14.01,2013-01-31 13:33:00,
2013-01-31 08:34:00,56.7,47.4,30.12,NW,314,8.0,8.0,71,0.00,,---,0.16,VWS V14.01,2013-01-31 13:34:00,
2013-01-31 08:36:00,56.7,47.4,30.12,North,350,5.0,10.0,71,0.00,,---,0.16,VWS V14.01,2013-01-31 13:36:00,
2013-01-31 08:38:00,56.7,47.4,30.12,North,5,6.0,12.0,71,0.01,,---,0.17,VWS V14.01,2013-01-31 13:38:00,
2013-01-31 08:39:00,56.7,47.4,30.13,NNW,340,3.0,12.0,71,0.01,,---,0.17,VWS V14.01,2013-01-31 13:39:00,
2013-01-31 08:41:00,56.7,47.0,30.13,WNW,293,2.0,2.0,70,0.01,,---,0.17,VWS V14.01,2013-01-31 13:41:00,
2013-01-31 08:46:00,56.7,46.7,30.14,NNE,32,3.0,8.0,69,0.01,,---,0.17,VWS V14.01,2013-01-31 13:46:00,
2013-01-31 08:47:00,56.7,46.3,30.14,NNW,342,1.0,4.0,68,0.01,,---,0.17,VWS V14.01,2013-01-31 13:47:00,
2013-01-31 08:48:00,56.7,46.3,30.14,NW,322,2.0,4.0,68,0.01,,---,0.17,VWS V14.01,2013-01-31 13:48:00,
2013-01-31 08:51:00,56.7,46.7,30.14,North,5,2.0,2.0,69,0.01,,---,0.17,VWS V14.01,2013-01-31 13:51:00,
2013-01-31 08:52:00,56.7,46.7,30.14,North,5,1.0,2.0,69,0.01,,---,0.17,VWS V14.01,2013-01-31 13:52:00,
2013-01-31 08:53:00,56.8,46.0,30.14,NW,315,2.0,7.0,67,0.01,,---,0.17,VWS V14.01,2013-01-31 13:53:00,
2013-01-31 08:56:00,56.8,45.2,30.14,WNW,300,2.0,4.0,65,0.01,,---,0.17,VWS V14.01,2013-01-31 13:56:00,
2013-01-31 08:57:00,56.8,45.2,30.14,WNW,296,3.0,4.0,65,0.01,,---,0.17,VWS V14.01,2013-01-31 13:57:00,
2013-01-31 08:58:00,56.8,45.6,30.14,WNW,294,2.0,4.0,66,0.01,,---,0.17,VWS V14.01,2013-01-31 13:58:00,
2013-01-31 09:01:00,56.9,46.5,30.14,NW,321,2.0,4.0,68,0.01,,---,0.17,VWS V14.01,2013-01-31 14:01:00,
2013-01-31 09:03:00,57.0,46.6,30.15,North,5,4.0,8.0,68,0.01,,---,0.17,VWS V14.01,2013-01-31 14:03:00,
2013-01-31 09:04:00,57.0,46.6,30.15,NNW,333,3.0,8.0,68,0.01,,---,0.17,VWS V14.01,2013-01-31 14:04:00,
2013-01-31 09:07:00,57.0,46.6,30.15,WNW,298,1.0,3.0,68,0.01,,---,0.17,VWS V14.01,2013-01-31 14:07:00,
2013-01-31 09:08:00,57.0,46.6,30.15,NW,322,1.0,4.0,68,0.01,,---,0.17,VWS V14.01,2013-01-31 14:08:00,
2013-01-31 09:09:00,57.0,46.9,30.15,NW,322,1.0,4.0,69,0.01,,---,0.17,VWS V14.01,2013-01-31 14:09:00,
2013-01-31 09:12:00,57.1,47.0,30.15,WNW,284,3.0,9.0,69,0.01,,---,0.17,VWS V14.01,2013-01-31 14:12:00,
2013-01-31 09:14:00,57.1,46.7,30.15,NNW,342,1.0,9.0,68,0.01,,---,0.17,VWS V14.01,2013-01-31 14:14:00,
2013-01-31 09:15:00,57.1,47.0,30.15,NW,317,4.0,9.0,69,0.01,,---,0.17,VWS V14.01,2013-01-31 14:15:00,
2013-01-31 09:18:00,57.1,47.4,30.15,NW,313,4.0,6.0,70,0.01,,---,0.17,VWS V14.01,2013-01-31 14:18:00,
2013-01-31 09:20:00,56.9,47.2,30.15,WNW,283,3.0,8.0,70,0.01,,---,0.17,VWS V14.01,2013-01-31 14:20:00,
2013-01-31 09:21:00,56.9,47.2,30.15,West,273,3.0,8.0,70,0.01,,---,0.17,VWS V14.01,2013-01-31 14:21:00,
2013-01-31 09:23:00,56.8,47.1,30.15,NW,316,3.0,9.0,70,0.01,,---,0.17,VWS V14.01,2013-01-31 14:23:00,
2013-01-31 09:25:00,56.8,46.8,30.15,NNW,337,7.0,9.0,69,0.01,,---,0.17,VWS V14.01,2013-01-31 14:25:00,
2013-01-31 09:26:00,56.8,46.8,30.15,NW,309,3.0,9.0,69,0.01,,---,0.17,VWS V14.01,2013-01-31 14:26:00,
2013-01-31 09:30:00,56.7,45.5,30.16,North,360,3.0,6.0,66,0.01,,---,0.17,VWS V14.01,2013-01-31 14:30:00,
2013-01-31 09:31:00,56.6,45.4,30.16,North,360,3.0,6.0,66,0.01,,---,0.17,VWS V14.01,2013-01-31 14:31:00,
2013-01-31 09:32:00,56.6,45.0,30.16,West,272,4.0,8.0,65,0.01,,---,0.17,VWS V14.01,2013-01-31 14:32:00,
2013-01-31 09:36:00,56.6,44.2,30.16,NNW,339,8.0,8.0,63,0.01,,---,0.17,VWS V14.01,2013-01-31 14:36:00,
2013-01-31 09:37:00,56.5,44.1,30.16,North,11,2.0,8.0,63,0.01,,---,0.17,VWS V14.01,2013-01-31 14:37:00,
2013-01-31 09:38:00,56.5,44.1,30.16,NW,313,2.0,8.0,63,0.01,,---,0.17,VWS V14.01,2013-01-31 14:38:00,
2013-01-31 09:41:00,56.7,45.1,30.16,WNW,290,3.0,3.0,65,0.00,,---,0.17,VWS V14.01,2013-01-31 14:41:00,
2013-01-31 09:43:00,56.8,45.2,30.16,WNW,286,3.0,5.0,65,0.00,,---,0.17,VWS V14.01,2013-01-31 14:43:00,
2013-01-31 09:46:00,56.9,46.1,30.16,WNW,294,3.0,8.0,67,0.00,,---,0.17,VWS V14.01,2013-01-31 14:46:00,
2013-01-31 09:47:00,56.9,46.1,30.16,NNE,13,5.0,8.0,67,0.00,,---,0.17,VWS V14.01,2013-01-31 14:47:00,
2013-01-31 09:48:00,56.9,46.5,30.17,West,281,4.0,8.0,68,0.00,,---,0.17,VWS V14.01,2013-01-31 14:48:00,
2013-01-31 09:49:00,57.0,46.6,30.17,NW,317,4.0,8.0,68,0.00,,---,0.17,VWS V14.01,2013-01-31 14:49:00,
2013-01-31 09:52:00,57.0,46.9,30.17,WSW,258,1.0,3.0,69,0.00,,---,0.17,VWS V14.01,2013-01-31 14:52:00,
2013-01-31 09:53:00,57.1,47.0,30.16,WNW,300,6.0,10.0,69,0.00,,---,0.17,VWS V14.01,2013-01-31 14:53:00,
2013-01-31 09:54:00,57.2,47.1,30.17,WNW,300,4.0,10.0,69,0.00,,---,0.17,VWS V14.01,2013-01-31 14:54:00,
2013-01-31 09:55:00,57.2,47.1,30.17,WSW,257,3.0,10.0,69,0.00,,---,0.17,VWS V14.01,2013-01-31 14:55:00,
2013-01-31 09:57:00,57.3,47.6,30.17,NNW,331,5.0,8.0,70,0.00,,---,0.17,VWS V14.01,2013-01-31 14:57:00,
2013-01-31 09:58:00,57.3,47.6,30.17,NNW,335,5.0,8.0,70,0.00,,---,0.17,VWS V14.01,2013-01-31 14:58:00,
2013-01-31 09:59:00,57.4,47.7,30.17,West,261,3.0,8.0,70,0.00,,---,0.17,VWS V14.01,2013-01-31 14:59:00,
2013-01-31 10:01:00,57.4,47.7,30.17,WNW,294,3.0,8.0,70,0.00,,---,0.17,VWS V14.01,2013-01-31 15:01:00,
2013-01-31 10:03:00,57.4,47.7,30.17,NW,309,4.0,7.0,70,0.00,,---,0.17,VWS V14.01,2013-01-31 15:03:00,
2013-01-31 10:04:00,57.4,47.7,30.17,NNW,338,8.0,8.0,70,0.00,,---,0.17,VWS V14.01,2013-01-31 15:04:00,
2013-01-31 10:06:00,57.4,48.1,30.17,NW,325,3.0,8.0,71,0.00,,---,0.17,VWS V14.01,2013-01-31 15:06:00,
2013-01-31 10:08:00,57.5,48.2,30.17,SSW,193,4.0,8.0,71,0.00,,---,0.17,VWS V14.01,2013-01-31 15:08:00,
2013-01-31 10:09:00,57.5,48.2,30.17,NNW,329,3.0,9.0,71,0.00,,---,0.17,VWS V14.01,2013-01-31 15:09:00,
2013-01-31 10:11:00,57.5,48.2,30.17,WNW,288,3.0,4.0,71,0.00,,---,0.17,VWS V14.01,2013-01-31 15:11:00,
2013-01-31 10:13:00,57.5,48.2,30.17,WNW,296,2.0,4.0,71,0.00,,---,0.17,VWS V14.01,2013-01-31 15:13:00,
2013-01-31 10:14:00,57.5,47.8,30.17,WNW,296,4.0,11.0,70,0.00,,---,0.17,VWS V14.01,2013-01-31 15:14:00,
2013-01-31 10:15:00,57.5,47.8,30.17,WNW,298,2.0,11.0,70,0.00,,---,0.17,VWS V14.01,2013-01-31 15:15:00,
2013-01-31 10:16:00,57.5,47.4,30.17,West,279,3.0,8.0,69,0.00,,---,0.17,VWS V14.01,2013-01-31 15:16:00,
2013-01-31 10:20:00,57.3,47.2,30.18,WNW,302,3.0,8.0,69,0.00,,---,0.17,VWS V14.01,2013-01-31 15:20:00,
2013-01-31 10:21:00,57.2,47.1,30.18,NW,309,2.0,8.0,69,0.00,,---,0.17,VWS V14.01,2013-01-31 15:21:00,
2013-01-31 10:23:00,57.0,46.9,30.18,WNW,301,3.0,4.0,69,0.00,,---,0.17,VWS V14.01,2013-01-31 15:23:00,
2013-01-31 10:25:00,56.8,46.4,30.18,NNW,335,5.0,9.0,68,0.00,,---,0.17,VWS V14.01,2013-01-31 15:25:00,
2013-01-31 10:27:00,56.8,46.4,30.18,NW,324,3.0,3.0,68,0.00,,---,0.17,VWS V14.01,2013-01-31 15:27:00,
2013-01-31 10:28:00,56.9,46.8,30.18,NW,321,2.0,7.0,69,0.00,,---,0.17,VWS V14.01,2013-01-31 15:28:00,
2013-01-31 10:30:00,57.1,46.7,30.17,SW,236,0.0,7.0,68,0.00,,---,0.17,VWS V14.01,2013-01-31 15:30:00,
2013-01-31 10:32:00,57.2,46.4,30.17,WNW,291,5.0,8.0,67,0.00,,---,0.17,VWS V14.01,2013-01-31 15:32:00,
2013-01-31 10:34:00,57.2,46.4,30.17,NNW,346,5.0,8.0,67,0.00,,---,0.17,VWS V14.01,2013-01-31 15:34:00,
2013-01-31 10:36:00,57.2,46.4,30.17,NW,304,4.0,4.0,67,0.00,,---,0.17,VWS V14.01,2013-01-31 15:36:00,
2013-01-31 10:37:00,57.2,46.0,30.17,WNW,301,2.0,6.0,66,0.00,,---,0.17,VWS V14.01,2013-01-31 15:37:00,
2013-01-31 10:39:00,57.1,45.9,30.18,NW,308,2.0,8.0,66,0.00,,---,0.17,VWS V14.01,2013-01-31 15:39:00,
2013-01-31 10:42:00,57.1,45.9,30.18,NW,307,2.0,10.0,66,0.00,,---,0.17,VWS V14.01,2013-01-31 15:42:00,
2013-01-31 10:43:00,57.0,45.8,30.18,WNW,302,2.0,10.0,66,0.00,,---,0.17,VWS V14.01,2013-01-31 15:43:00,
2013-01-31 10:44:00,57.0,45.8,30.18,North,355,4.0,10.0,66,0.00,,---,0.17,VWS V14.01,2013-01-31 15:44:00,
2013-01-31 10:45:00,57.1,46.3,30.18,WNW,299,4.0,10.0,67,0.00,,---,0.17,VWS V14.01,2013-01-31 15:45:00,
2013-01-31 10:47:00,57.0,45.8,30.18,WNW,292,5.0,7.0,66,0.00,,---,0.17,VWS V14.01,2013-01-31 15:47:00,
2013-01-31 10:48:00,57.0,45.4,30.18,West,281,2.0,8.0,65,0.00,,---,0.17,VWS V14.01,2013-01-31 15:48:00,
2013-01-31 10:50:00,56.9,45.7,30.18,NW,313,3.0,9.0,66,0.00,,---,0.17,VWS V14.01,2013-01-31 15:50:00,
2013-01-31 10:51:00,56.9,45.7,30.18,NW,318,7.0,7.0,66,0.00,,---,0.17,VWS V14.01,2013-01-31 15:51:00,
2013-01-31 10:54:00,57.0,45.4,30.19,NW,319,4.0,11.0,65,0.00,,---,0.17,VWS V14.01,2013-01-31 15:54:00,
2013-01-31 10:55:00,56.9,45.3,30.19,NNW,327,4.0,11.0,65,0.00,,---,0.17,VWS V14.01,2013-01-31 15:55:00,
2013-01-31 10:56:00,56.9,44.9,30.19,NNW,331,6.0,11.0,64,0.00,,---,0.17,VWS V14.01,2013-01-31 15:56:00,
2013-01-31 10:57:00,56.8,44.3,30.19,WNW,298,6.0,14.0,63,0.00,,---,0.17,VWS V14.01,2013-01-31 15:57:00,
2013-01-31 10:59:00,56.7,44.3,30.19,WNW,287,2.0,14.0,63,0.00,,---,0.17,VWS V14.01,2013-01-31 15:59:00,
2013-01-31 11:00:00,56.7,43.8,30.19,WNW,301,6.0,14.0,62,0.00,,---,0.17,VWS V14.01,2013-01-31 16:00:00,
2013-01-31 11:01:00,56.7,43.8,30.19,WNW,302,3.0,14.0,62,0.00,,---,0.17,VWS V14.01,2013-01-31 16:01:00,
2013-01-31 11:02:00,56.6,42.9,30.19,NNW,337,2.0,9.0,60,0.00,,---,0.17,VWS V14.01,2013-01-31 16:02:00,
2013-01-31 11:04:00,56.6,42.5,30.19,WNW,294,3.0,9.0,59,0.00,,---,0.17,VWS V14.01,2013-01-31 16:04:00,
2013-01-31 11:06:00,56.6,42.0,30.19,NNW,347,3.0,9.0,58,0.00,,---,0.17,VWS V14.01,2013-01-31 16:06:00,
2013-01-31 11:09:00,56.6,40.6,30.19,WNW,303,6.0,6.0,55,0.00,,---,0.17,VWS V14.01,2013-01-31 16:09:00,
2013-01-31 11:10:00,56.5,40.5,30.19,NNW,348,6.0,6.0,55,0.00,,---,0.17,VWS V14.01,2013-01-31 16:10:00,
2013-01-31 11:11:00,56.4,40.5,30.19,NNW,340,8.0,8.0,55,0.00,,---,0.17,VWS V14.01,2013-01-31 16:11:00,
2013-01-31 11:15:00,56.0,40.5,30.19,NNW,327,5.0,8.0,56,0.00,,---,0.17,VWS V14.01,2013-01-31 16:15:00,
2013-01-31 11:16:00,56.0,40.5,30.19,WNW,291,4.0,5.0,56,0.00,,---,0.17,VWS V14.01,2013-01-31 16:16:00,
2013-01-31 11:17:00,56.0,40.5,30.19,NW,310,3.0,6.0,56,0.00,,---,0.17,VWS V14.01,2013-01-31 16:17:00,
2013-01-31 11:21:00,56.0,41.5,30.18,WNW,302,4.0,4.0,58,0.00,,---,0.17,VWS V14.01,2013-01-31 16:21:00,
2013-01-31 11:22:00,56.0,41.0,30.18,NW,315,4.0,5.0,57,0.00,,---,0.17,VWS V14.01,2013-01-31 16:22:00,
2013-01-31 11:26:00,56.1,41.1,30.19,WNW,288,2.0,2.0,57,0.00,,---,0.17,VWS V14.01,2013-01-31 16:26:00,
2013-01-31 11:28:00,56.2,41.2,30.19,North,350,8.0,8.0,57,0.00,,---,0.17,VWS V14.01,2013-01-31 16:28:00,
2013-01-31 11:29:00,56.3,41.7,30.19,NW,310,8.0,8.0,58,0.00,,---,0.17,VWS V14.01,2013-01-31 16:29:00,
2013-01-31 11:31:00,56.6,40.6,30.19,WNW,301,4.0,5.0,55,0.00,,---,0.17,VWS V14.01,2013-01-31 16:31:00,
2013-01-31 11:32:00,56.6,40.6,30.19,WNW,296,4.0,5.0,55,0.00,,---,0.17,VWS V14.01,2013-01-31 16:32:00,
2013-01-31 11:34:00,56.5,40.5,30.19,NNW,336,2.0,7.0,55,0.00,,---,0.17,VWS V14.01,2013-01-31 16:34:00,
2013-01-31 11:35:00,56.5,40.5,30.19,North,11,7.0,7.0,55,0.00,,---,0.17,VWS V14.01,2013-01-31 16:35:00,
2013-01-31 11:37:00,56.4,40.5,30.19,NW,313,4.0,6.0,55,0.00,,---,0.17,VWS V14.01,2013-01-31 16:37:00,
2013-01-31 11:38:00,56.4,40.5,30.19,WSW,257,10.0,10.0,55,0.00,,---,0.17,VWS V14.01,2013-01-31 16:38:00,
2013-01-31 11:41:00,56.5,41.0,30.19,NNW,348,6.0,10.0,56,0.00,,---,0.17,VWS V14.01,2013-01-31 16:41:00,
2013-01-31 11:42:00,56.6,41.1,30.18,North,5,6.0,6.0,56,0.00,,---,0.17,VWS V14.01,2013-01-31 16:42:00,
2013-01-31 11:43:00,56.7,41.2,30.18,WSW,256,2.0,7.0,56,0.00,,---,0.17,VWS V14.01,2013-01-31 16:43:00,
2013-01-31 11:46:00,56.8,40.3,30.19,West,272,3.0,11.0,54,0.00,,---,0.17,VWS V14.01,2013-01-31 16:46:00,
2013-01-31 11:48:00,56.6,39.7,30.19,West,276,5.0,6.0,53,0.00,,---,0.17,VWS V14.01,2013-01-31 16:48:00,
2013-01-31 11:49:00,56.5,39.6,30.19,NNW,331,4.0,7.0,53,0.00,,---,0.17,VWS V14.01,2013-01-31 16:49:00,
2013-01-31 11:51:00,56.3,39.4,30.19,SSW,196,0.0,3.0,53,0.00,,---,0.17,VWS V14.01,2013-01-31 16:51:00,
2013-01-31 11:53:00,56.3,39.9,30.19,WNW,292,2.0,7.0,54,0.00,,---,0.17,VWS V14.01,2013-01-31 16:53:00,
2013-01-31 11:54:00,56.4,40.0,30.19,WNW,300,5.0,7.0,54,0.00,,---,0.17,VWS V14.01,2013-01-31 16:54:00,
2013-01-31 11:56:00,56.4,40.0,30.19,WNW,291,2.0,7.0,54,0.00,,---,0.17,VWS V14.01,2013-01-31 16:56:00,
2013-01-31 11:59:00,56.7,39.8,30.19,WNW,289,4.0,8.0,53,0.00,,---,0.17,VWS V14.01,2013-01-31 16:59:00,
2013-01-31 12:00:00,56.6,39.7,30.19,West,269,3.0,8.0,53,0.00,,---,0.17,VWS V14.01,2013-01-31 17:00:00,
2013-01-31 12:02:00,56.5,38.6,30.19,West,273,3.0,7.0,51,0.00,,---,0.17,VWS V14.01,2013-01-31 17:02:00,
2013-01-31 12:04:00,56.4,38.5,30.19,WNW,289,5.0,12.0,51,0.00,,---,0.17,VWS V14.01,2013-01-31 17:04:00,
2013-01-31 12:05:00,56.3,38.9,30.19,NNW,330,2.0,12.0,52,0.00,,---,0.17,VWS V14.01,2013-01-31 17:05:00,
2013-01-31 12:07:00,56.4,39.5,30.18,North,355,2.0,11.0,53,0.00,,---,0.17,VWS V14.01,2013-01-31 17:07:00,
2013-01-31 12:11:00,56.6,39.7,30.19,NW,307,3.0,11.0,53,0.00,,---,0.17,VWS V14.01,2013-01-31 17:11:00,
2013-01-31 12:12:00,56.6,39.2,30.19,NNW,342,4.0,6.0,52,0.00,,---,0.17,VWS V14.01,2013-01-31 17:12:00,
2013-01-31 12:13:00,56.7,39.3,30.19,West,280,1.0,6.0,52,0.00,,---,0.17,VWS V14.01,2013-01-31 17:13:00,
2013-01-31 12:17:00,56.6,40.2,30.19,WNW,296,2.0,7.0,54,0.00,,---,0.17,VWS V14.01,2013-01-31 17:17:00,
2013-01-31 12:18:00,56.5,40.1,30.19,WNW,295,6.0,7.0,54,0.00,,---,0.17,VWS V14.01,2013-01-31 17:18:00,
2013-01-31 12:19:00,56.4,40.0,30.19,NW,307,5.0,8.0,54,0.00,,---,0.17,VWS V14.01,2013-01-31 17:19:00,
2013-01-31 12:23:00,56.3,40.4,30.19,WSW,246,3.0,5.0,55,0.00,,---,0.17,VWS V14.01,2013-01-31 17:23:00,
2013-01-31 12:24:00,56.3,40.8,30.18,WNW,302,4.0,5.0,56,0.00,,---,0.17,VWS V14.01,2013-01-31 17:24:00,
2013-01-31 12:25:00,56.3,40.4,30.19,NNW,334,2.0,6.0,55,0.00,,---,0.17,VWS V14.01,2013-01-31 17:25:00,
2013-01-31 12:26:00,56.3,40.4,30.19,NW,326,3.0,5.0,55,0.00,,---,0.17,VWS V14.01,2013-01-31 17:26:00,
2013-01-31 12:28:00,56.6,40.6,30.19,West,273,2.0,5.0,55,0.00,,---,0.17,VWS V14.01,2013-01-31 17:28:00,
2013-01-31 12:30:00,56.9,40.4,30.19,West,263,2.0,5.0,54,0.00,,---,0.17,VWS V14.01,2013-01-31 17:30:00,
2013-01-31 12:31:00,57.0,40.1,30.19,NW,323,2.0,5.0,53,0.00,,---,0.17,VWS V14.01,2013-01-31 17:31:00,
2013-01-31 12:33:00,57.2,39.8,30.19,WNW,299,3.0,6.0,52,0.00,,---,0.17,VWS V14.01,2013-01-31 17:33:00,
2013-01-31 12:34:00,57.2,39.8,30.19,NW,314,3.0,6.0,52,0.00,,---,0.17,VWS V14.01,2013-01-31 17:34:00,
2013-01-31 12:36:00,57.0,39.6,30.19,NNW,347,2.0,5.0,52,0.00,,---,0.17,VWS V14.01,2013-01-31 17:36:00,
2013-01-31 12:38:00,57.0,39.6,30.19,West,281,2.0,5.0,52,0.00,,---,0.17,VWS V14.01,2013-01-31 17:38:00,
2013-01-31 12:41:00,57.1,39.2,30.19,SW,228,5.0,5.0,51,0.00,,---,0.17,VWS V14.01,2013-01-31 17:41:00,
2013-01-31 12:42:00,57.1,39.2,30.19,NW,312,3.0,5.0,51,0.00,,---,0.17,VWS V14.01,2013-01-31 17:42:00,
2013-01-31 12:43:00,57.1,39.7,30.19,NW,323,1.0,5.0,52,0.00,,---,0.17,VWS V14.01,2013-01-31 17:43:00,
2013-01-31 12:46:00,57.1,39.2,30.19,West,281,7.0,10.0,51,0.00,,---,0.17,VWS V14.01,2013-01-31 17:46:00,
2013-01-31 12:47:00,56.9,39.0,30.19,NW,321,2.0,10.0,51,0.00,,---,0.17,VWS V14.01,2013-01-31 17:47:00,
2013-01-31 12:48:00,56.8,39.4,30.19,North,355,5.0,10.0,52,0.00,,---,0.17,VWS V14.01,2013-01-31 17:48:00,
2013-01-31 12:49:00,56.8,39.4,30.19,WNW,299,4.0,10.0,52,0.00,,---,0.17,VWS V14.01,2013-01-31 17:49:00,
2013-01-31 12:52:00,56.9,39.0,30.19,NNW,343,6.0,13.0,51,0.00,,---,0.17,VWS V14.01,2013-01-31 17:52:00,
2013-01-31 12:53:00,56.9,39.5,30.19,NNW,333,6.0,13.0,52,0.00,,---,0.17,VWS V14.01,2013-01-31 17:53:00,
2013-01-31 12:54:00,56.9,39.5,30.19,NNW,333,3.0,13.0,52,0.00,,---,0.17,VWS V14.01,2013-01-31 17:54:00,
2013-01-31 12:57:00,57.0,40.1,30.19,NW,317,2.0,12.0,53,0.00,,---,0.17,VWS V14.01,2013-01-31 17:57:00,
2013-01-31 12:58:00,57.1,40.6,30.19,WNW,291,2.0,12.0,54,0.00,,---,0.17,VWS V14.01,2013-01-31 17:58:00,
2013-01-31 12:59:00,57.1,40.6,30.19,NNW,335,3.0,12.0,54,0.00,,---,0.17,VWS V14.01,2013-01-31 17:59:00,
2013-01-31 13:02:00,57.4,40.4,30.18,West,280,1.0,5.0,53,0.00,,---,0.17,VWS V14.01,2013-01-31 18:02:00,
2013-01-31 13:03:00,57.5,41.0,30.19,West,262,4.0,9.0,54,0.00,,---,0.17,VWS V14.01,2013-01-31 18:03:00,
2013-01-31 13:05:00,57.7,40.7,30.18,NNW,347,2.0,9.0,53,0.00,,---,0.17,VWS V14.01,2013-01-31 18:05:00,
2013-01-31 13:07:00,57.7,39.7,30.19,WNW,300,3.0,12.0,51,0.00,,---,0.17,VWS V14.01,2013-01-31 18:07:00,
2013-01-31 13:08:00,57.6,39.6,30.19,NW,322,3.0,12.0,51,0.00,,---,0.17,VWS V14.01,2013-01-31 18:08:00,
2013-01-31 13:10:00,57.5,39.0,30.19,NW,309,3.0,12.0,50,0.00,,---,0.17,VWS V14.01,2013-01-31 18:10:00,
2013-01-31 13:13:00,57.0,39.6,30.18,WNW,298,3.0,9.0,52,0.00,,---,0.17,VWS V14.01,2013-01-31 18:13:00,
2013-01-31 13:14:00,56.9,39.5,30.18,WNW,292,4.0,13.0,52,0.00,,---,0.17,VWS V14.01,2013-01-31 18:14:00,
2013-01-31 13:15:00,56.9,39.5,30.18,WNW,288,3.0,13.0,52,0.00,,---,0.17,VWS V14.01,2013-01-31 18:15:00,
2013-01-31 13:18:00,56.6,40.2,30.18,WNW,300,3.0,11.0,54,0.00,,---,0.17,VWS V14.01,2013-01-31 18:18:00,
2013-01-31 13:20:00,56.7,40.7,30.18,NNE,15,2.0,11.0,55,0.00,,---,0.17,VWS V14.01,2013-01-31 18:20:00,
2013-01-31 13:22:00,57.1,41.1,30.18,NW,315,3.0,10.0,55,0.00,,---,0.17,VWS V14.01,2013-01-31 18:22:00,
2013-01-31 13:23:00,57.3,41.3,30.18,NNW,342,2.0,10.0,55,0.00,,---,0.17,VWS V14.01,2013-01-31 18:23:00,
2013-01-31 13:25:00,57.4,41.4,30.17,NNW,329,3.0,10.0,55,0.00,,---,0.17,VWS V14.01,2013-01-31 18:25:00,
2013-01-31 13:26:00,57.4,41.4,30.17,NNW,345,2.0,4.0,55,0.00,,---,0.17,VWS V14.01,2013-01-31 18:26:00,
2013-01-31 13:27:00,57.5,40.5,30.17,NW,309,2.0,8.0,53,0.00,,---,0.17,VWS V14.01,2013-01-31 18:27:00,
2013-01-31 13:29:00,57.6,40.6,30.17,NNW,348,1.0,8.0,53,0.00,,---,0.17,VWS V14.01,2013-01-31 18:29:00,
2013-01-31 13:31:00,57.6,40.6,30.18,WNW,294,3.0,5.0,53,0.00,,---,0.17,VWS V14.01,2013-01-31 18:31:00,
2013-01-31 13:35:00,57.4,39.4,30.18,NNW,329,4.0,9.0,51,0.00,,---,0.17,VWS V14.01,2013-01-31 18:35:00,
2013-01-31 13:36:00,57.5,40.0,30.17,NNW,342,5.0,5.0,52,0.00,,---,0.17,VWS V14.01,2013-01-31 18:36:00,
2013-01-31 13:38:00,57.6,40.1,30.18,NNE,17,7.0,14.0,52,0.00,,---,0.17,VWS V14.01,2013-01-31 18:38:00,
2013-01-31 13:40:00,57.5,40.5,30.17,NW,318,3.0,14.0,53,0.00,,---,0.17,VWS V14.01,2013-01-31 18:40:00,
2013-01-31 13:41:00,57.4,40.4,30.17,NNE,30,3.0,14.0,53,0.00,,---,0.17,VWS V14.01,2013-01-31 18:41:00,
2013-01-31 13:42:00,57.4,40.9,30.17,NW,315,3.0,6.0,54,0.00,,---,0.17,VWS V14.01,2013-01-31 18:42:00,
2013-01-31 13:43:00,57.6,41.6,30.17,WNW,282,3.0,6.0,55,0.00,,---,0.17,VWS V14.01,2013-01-31 18:43:00,
2013-01-31 13:46:00,57.8,41.8,30.18,NNW,342,6.0,6.0,55,0.00,,---,0.17,VWS V14.01,2013-01-31 18:46:00,
2013-01-31 13:48:00,58.2,41.2,30.18,West,271,2.0,9.0,53,0.00,,---,0.17,VWS V14.01,2013-01-31 18:48:00,
2013-01-31 13:49:00,58.3,41.3,30.18,NE,46,4.0,9.0,53,0.00,,---,0.17,VWS V14.01,2013-01-31 18:49:00,
2013-01-31 13:51:00,58.3,41.3,30.17,North,10,8.0,9.0,53,0.00,,---,0.17,VWS V14.01,2013-01-31 18:51:00,
2013-01-31 13:52:00,58.3,40.8,30.17,NW,325,3.0,11.0,52,0.00,,---,0.17,VWS V14.01,2013-01-31 18:52:00,
2013-01-31 13:53:00,58.1,40.6,30.17,NNW,342,1.0,11.0,52,0.00,,---,0.17,VWS V14.01,2013-01-31 18:53:00,
2013-01-31 13:54:00,58.2,40.7,30.17,NW,321,6.0,11.0,52,0.00,,---,0.17,VWS V14.01,2013-01-31 18:54:00,
2013-01-31 13:56:00,58.2,40.2,30.17,NNW,342,5.0,9.0,51,0.00,,---,0.17,VWS V14.01,2013-01-31 18:56:00,
2013-01-31 13:57:00,58.2,40.2,30.17,NNE,25,4.0,9.0,51,0.00,,---,0.17,VWS V14.01,2013-01-31 18:57:00,
2013-01-31 13:59:00,58.2,39.7,30.18,WNW,294,6.0,9.0,50,0.00,,---,0.17,VWS V14.01,2013-01-31 18:59:00,
2013-01-31 14:01:00,58.2,40.2,30.18,WNW,300,5.0,9.0,51,0.00,,---,0.17,VWS V14.01,2013-01-31 19:01:00,
2013-01-31 14:02:00,58.1,39.6,30.17,West,277,3.0,5.0,50,0.00,,---,0.17,VWS V14.01,2013-01-31 19:02:00,
2013-01-31 14:04:00,58.0,40.0,30.18,NW,306,2.0,5.0,51,0.00,,---,0.17,VWS V14.01,2013-01-31 19:04:00,
2013-01-31 14:06:00,58.1,40.1,30.18,WNW,291,5.0,5.0,51,0.00,,---,0.17,VWS V14.01,2013-01-31 19:06:00,
2013-01-31 14:07:00,58.2,40.2,30.18,WNW,297,2.0,5.0,51,0.00,,---,0.17,VWS V14.01,2013-01-31 19:07:00,
2013-01-31 14:09:00,58.3,40.8,30.18,North,360,1.0,7.0,52,0.00,,---,0.17,VWS V14.01,2013-01-31 19:09:00,
2013-01-31 14:11:00,58.4,40.4,30.18,NNW,331,3.0,10.0,51,0.00,,---,0.17,VWS V14.01,2013-01-31 19:11:00,
2013-01-31 14:12:00,58.5,40.5,30.18,NNW,328,2.0,10.0,51,0.00,,---,0.17,VWS V14.01,2013-01-31 19:12:00,
2013-01-31 14:14:00,58.6,40.0,30.18,NNW,347,9.0,10.0,50,0.00,,---,0.17,VWS V14.01,2013-01-31 19:14:00,
2013-01-31 14:15:00,58.7,40.1,30.18,NNW,342,3.0,10.0,50,0.00,,---,0.17,VWS V14.01,2013-01-31 19:15:00,
2013-01-31 14:16:00,58.7,39.6,30.18,NW,307,2.0,5.0,49,0.00,,---,0.17,VWS V14.01,2013-01-31 19:16:00,
2013-01-31 14:18:00,58.5,38.9,30.18,North,355,4.0,11.0,48,0.00,,---,0.17,VWS V14.01,2013-01-31 19:18:00,
2013-01-31 14:19:00,58.5,38.9,30.18,North,355,4.0,11.0,48,0.00,,---,0.17,VWS V14.01,2013-01-31 19:19:00,
2013-01-31 14:20:00,58.5,38.9,30.18,NE,44,5.0,11.0,48,0.00,,---,0.17,VWS V14.01,2013-01-31 19:20:00,
2013-01-31 14:22:00,58.5,39.4,30.18,WSW,257,5.0,7.0,49,0.00,,---,0.17,VWS V14.01,2013-01-31 19:22:00,
2013-01-31 14:24:00,58.6,39.0,30.18,West,267,1.0,7.0,48,0.00,,---,0.17,VWS V14.01,2013-01-31 19:24:00,
2013-01-31 14:25:00,58.6,39.0,30.18,WNW,286,2.0,7.0,48,0.00,,---,0.17,VWS V14.01,2013-01-31 19:25:00,
2013-01-31 14:27:00,58.8,39.2,30.18,North,5,9.0,10.0,48,0.00,,---,0.17,VWS V14.01,2013-01-31 19:27:00,
2013-01-31 14:30:00,58.7,39.1,30.18,WNW,293,1.0,10.0,48,0.00,,---,0.17,VWS V14.01,2013-01-31 19:30:00,
2013-01-31 14:32:00,58.6,39.0,30.18,NW,311,4.0,5.0,48,0.00,,---,0.17,VWS V14.01,2013-01-31 19:32:00,
2013-01-31 14:35:00,58.4,39.8,30.18,NW,311,2.0,6.0,50,0.00,,---,0.17,VWS V14.01,2013-01-31 19:35:00,
2013-01-31 14:37:00,58.6,39.5,30.18,NW,315,3.0,4.0,49,0.00,,---,0.17,VWS V14.01,2013-01-31 19:37:00,
2013-01-31 14:38:00,58.6,39.5,30.18,NNW,327,5.0,5.0,49,0.00,,---,0.17,VWS V14.01,2013-01-31 19:38:00,
2013-01-31 14:40:00,58.8,40.2,30.18,NE,52,4.0,8.0,50,0.00,,---,0.17,VWS V14.01,2013-01-31 19:40:00,
2013-01-31 14:41:00,58.9,41.3,30.18,NNW,329,3.0,8.0,52,0.00,,---,0.17,VWS V14.01,2013-01-31 19:41:00,
2013-01-31 14:43:00,59.2,41.6,30.18,WNW,302,2.0,9.0,52,0.00,,---,0.17,VWS V14.01,2013-01-31 19:43:00,
2013-01-31 14:44:00,59.4,41.8,30.17,West,279,1.0,9.0,52,0.00,,---,0.17,VWS V14.01,2013-01-31 19:44:00,
2013-01-31 14:46:00,59.6,41.5,30.18,WNW,290,3.0,9.0,51,0.00,,---,0.17,VWS V14.01,2013-01-31 19:46:00,
2013-01-31 14:48:00,59.5,40.9,30.18,NNW,346,3.0,7.0,50,0.00,,---,0.17,VWS V14.01,2013-01-31 19:48:00,
2013-01-31 14:49:00,59.4,41.3,30.18,NW,313,4.0,7.0,51,0.00,,---,0.17,VWS V14.01,2013-01-31 19:49:00,
2013-01-31 14:51:00,59.1,40.0,30.18,NNW,348,8.0,8.0,49,0.00,,---,0.17,VWS V14.01,2013-01-31 19:51:00,
2013-01-31 14:52:00,59.0,39.4,30.18,NW,326,4.0,8.0,48,0.00,,---,0.17,VWS V14.01,2013-01-31 19:52:00,
2013-01-31 14:53:00,59.0,39.9,30.18,West,264,1.0,8.0,49,0.00,,---,0.17,VWS V14.01,2013-01-31 19:53:00,
2013-01-31 14:56:00,59.0,40.4,30.18,WNW,296,5.0,5.0,50,0.00,,---,0.17,VWS V14.01,2013-01-31 19:56:00,
2013-01-31 14:58:00,58.9,40.3,30.18,North,5,3.0,10.0,50,0.00,,---,0.17,VWS V14.01,2013-01-31 19:58:00,
2013-01-31 15:01:00,59.3,41.2,30.18,WSW,244,3.0,10.0,51,0.00,,---,0.17,VWS V14.01,2013-01-31 20:01:00,
2013-01-31 15:02:00,59.3,41.2,30.18,WNW,298,2.0,10.0,51,0.00,,---,0.17,VWS V14.01,2013-01-31 20:02:00,
2013-01-31 15:03:00,59.3,41.2,30.18,WSW,238,3.0,10.0,51,0.00,,---,0.17,VWS V14.01,2013-01-31 20:03:00,
2013-01-31 15:05:00,59.5,41.9,30.18,WNW,288,5.0,10.0,52,0.00,,---,0.17,VWS V14.01,2013-01-31 20:05:00,
2013-01-31 15:07:00,59.6,41.5,30.18,WNW,299,3.0,3.0,51,0.00,,---,0.17,VWS V14.01,2013-01-31 20:07:00,
2013-01-31 15:08:00,59.7,41.0,30.18,North,10,4.0,4.0,50,0.00,,---,0.17,VWS V14.01,2013-01-31 20:08:00,
2013-01-31 15:09:00,59.6,41.0,30.18,NNW,329,4.0,8.0,50,0.00,,---,0.17,VWS V14.01,2013-01-31 20:09:00,
2013-01-31 15:11:00,59.1,36.7,30.18,North,355,5.0,5.0,43,0.00,,---,0.17,VWS V14.01,2013-01-31 20:11:00,
2013-01-31 15:12:00,59.0,36.6,30.18,WNW,303,6.0,6.0,43,0.00,,---,0.17,VWS V14.01,2013-01-31 20:12:00,
2013-01-31 15:15:00,58.8,37.0,30.18,WNW,290,2.0,6.0,44,0.00,,---,0.17,VWS V14.01,2013-01-31 20:15:00,
2013-01-31 15:16:00,58.8,37.5,30.18,NNW,333,3.0,4.0,45,0.00,,---,0.17,VWS V14.01,2013-01-31 20:16:00,
2013-01-31 15:17:00,58.8,38.1,30.18,NNW,346,5.0,5.0,46,0.00,,---,0.17,VWS V14.01,2013-01-31 20:17:00,
2013-01-31 15:18:00,58.8,38.1,30.18,NNW,335,2.0,5.0,46,0.00,,---,0.17,VWS V14.01,2013-01-31 20:18:00,
2013-01-31 15:20:00,59.0,38.8,30.18,NNW,329,2.0,5.0,47,0.00,,---,0.17,VWS V14.01,2013-01-31 20:20:00,
2013-01-31 15:21:00,59.1,39.5,30.18,NW,314,4.0,5.0,48,0.00,,---,0.17,VWS V14.01,2013-01-31 20:21:00,
2013-01-31 15:23:00,59.2,39.0,30.18,ENE,59,5.0,7.0,47,0.00,,---,0.17,VWS V14.01,2013-01-31 20:23:00,
2013-01-31 15:25:00,59.3,38.0,30.18,NW,314,6.0,11.0,45,0.00,,---,0.17,VWS V14.01,2013-01-31 20:25:00,
2013-01-31 15:26:00,59.2,37.9,30.18,West,279,4.0,4.0,45,0.00,,---,0.17,VWS V14.01,2013-01-31 20:26:00,
2013-01-31 15:27:00,59.2,38.5,30.18,NW,308,4.0,4.0,46,0.00,,---,0.17,VWS V14.01,2013-01-31 20:27:00,
2013-01-31 15:29:00,58.9,38.2,30.18,WNW,284,2.0,4.0,46,0.00,,---,0.17,VWS V14.01,2013-01-31 20:29:00,
2013-01-31 15:30:00,58.8,39.2,30.19,NW,310,3.0,6.0,48,0.00,,---,0.17,VWS V14.01,2013-01-31 20:30:00,
2013-01-31 15:31:00,58.8,39.7,30.18,North,355,3.0,4.0,49,0.00,,---,0.17,VWS V14.01,2013-01-31 20:31:00,
2013-01-31 15:32:00,58.7,40.1,30.18,WNW,292,2.0,4.0,50,0.00,,---,0.17,VWS V14.01,2013-01-31 20:32:00,
2013-01-31 15:34:00,58.5,40.5,30.18,West,268,3.0,7.0,51,0.00,,---,0.17,VWS V14.01,2013-01-31 20:34:00,
2013-01-31 15:35:00,58.4,40.4,30.18,NNW,332,2.0,7.0,51,0.00,,---,0.17,VWS V14.01,2013-01-31 20:35:00,
2013-01-31 15:37:00,58.4,40.4,30.18,WSW,238,4.0,5.0,51,0.00,,---,0.17,VWS V14.01,2013-01-31 20:37:00,
2013-01-31 15:39:00,58.3,40.8,30.18,WSW,237,4.0,6.0,52,0.00,,---,0.17,VWS V14.01,2013-01-31 20:39:00,
2013-01-31 15:42:00,58.3,41.3,30.18,NNW,327,4.0,4.0,53,0.00,,---,0.17,VWS V14.01,2013-01-31 20:42:00,
2013-01-31 15:43:00,58.3,41.3,30.18,WNW,297,2.0,6.0,53,0.00,,---,0.17,VWS V14.01,2013-01-31 20:43:00,
2013-01-31 15:44:00,58.4,40.9,30.18,NNW,334,3.0,6.0,52,0.00,,---,0.17,VWS V14.01,2013-01-31 20:44:00,
2013-01-31 15:45:00,58.4,41.3,30.18,West,276,2.0,6.0,53,0.00,,---,0.17,VWS V14.01,2013-01-31 20:45:00,
2013-01-31 15:48:00,58.5,40.5,30.18,West,281,3.0,8.0,51,0.00,,---,0.17,VWS V14.01,2013-01-31 20:48:00,
2013-01-31 15:49:00,58.4,40.9,30.18,WNW,300,2.0,8.0,52,0.00,,---,0.17,VWS V14.01,2013-01-31 20:49:00,
2013-01-31 15:50:00,58.4,40.9,30.18,WNW,300,2.0,8.0,52,0.00,,---,0.17,VWS V14.01,2013-01-31 20:50:00,
2013-01-31 15:54:00,58.1,40.1,30.18,WNW,301,3.0,9.0,51,0.00,,---,0.17,VWS V14.01,2013-01-31 20:54:00,
2013-01-31 15:55:00,58.0,39.5,30.18,NW,306,5.0,9.0,50,0.00,,---,0.17,VWS V14.01,2013-01-31 20:55:00,
2013-01-31 15:57:00,57.8,40.3,30.18,West,278,3.0,13.0,52,0.00,,---,0.17,VWS V14.01,2013-01-31 20:57:00,
2013-01-31 16:00:00,57.7,40.7,30.18,West,264,4.0,13.0,53,0.00,,---,0.17,VWS V14.01,2013-01-31 21:00:00,
2013-01-31 16:01:00,57.8,40.8,30.18,West,261,5.0,5.0,53,0.00,,---,0.17,VWS V14.01,2013-01-31 21:01:00,
2013-01-31 16:03:00,57.9,39.9,30.18,West,274,3.0,5.0,51,0.00,,---,0.17,VWS V14.01,2013-01-31 21:03:00,
2013-01-31 16:06:00,58.0,40.0,30.18,North,355,5.0,6.0,51,0.00,,---,0.17,VWS V14.01,2013-01-31 21:06:00,
2013-01-31 16:07:00,58.0,40.0,30.18,NNW,341,5.0,5.0,51,0.00,,---,0.17,VWS V14.01,2013-01-31 21:07:00,
2013-01-31 16:10:00,58.1,39.6,30.18,NW,311,3.0,6.0,50,0.00,,---,0.17,VWS V14.01,2013-01-31 21:10:00,
2013-01-31 16:11:00,57.9,37.3,30.18,WSW,254,1.0,3.0,46,0.00,,---,0.17,VWS V14.01,2013-01-31 21:11:00,
2013-01-31 16:12:00,57.9,37.3,30.18,NW,310,5.0,5.0,46,0.00,,---,0.17,VWS V14.01,2013-01-31 21:12:00,
2013-01-31 16:13:00,57.8,37.7,30.18,NNE,13,4.0,9.0,47,0.00,,---,0.17,VWS V14.01,2013-01-31 21:13:00,
2013-01-31 16:16:00,57.9,38.9,30.18,West,277,1.0,3.0,49,0.00,,---,0.17,VWS V14.01,2013-01-31 21:16:00,
2013-01-31 16:17:00,58.1,39.1,30.18,NW,319,2.0,5.0,49,0.00,,---,0.17,VWS V14.01,2013-01-31 21:17:00,
2013-01-31 16:18:00,58.1,38.5,30.18,NNE,26,5.0,5.0,48,0.00,,---,0.17,VWS V14.01,2013-01-31 21:18:00,
2013-01-31 16:21:00,58.0,38.4,30.18,NNW,328,2.0,4.0,48,0.00,,---,0.17,VWS V14.01,2013-01-31 21:21:00,
2013-01-31 16:24:00,57.9,37.8,30.18,NW,319,2.0,6.0,47,0.00,,---,0.17,VWS V14.01,2013-01-31 21:24:00,
2013-01-31 16:27:00,57.9,37.8,30.19,NNW,347,2.0,8.0,47,0.00,,---,0.17,VWS V14.01,2013-01-31 21:27:00,
2013-01-31 16:29:00,57.9,37.8,30.18,NNW,341,4.0,8.0,47,0.00,,---,0.17,VWS V14.01,2013-01-31 21:29:00,
2013-01-31 16:30:00,57.9,37.8,30.18,NNW,348,4.0,8.0,47,0.00,,---,0.17,VWS V14.01,2013-01-31 21:30:00,
2013-01-31 16:33:00,57.8,37.7,30.18,NNW,327,3.0,6.0,47,0.00,,---,0.17,VWS V14.01,2013-01-31 21:33:00,
2013-01-31 16:34:00,57.8,37.7,30.18,WNW,290,3.0,9.0,47,0.00,,---,0.17,VWS V14.01,2013-01-31 21:34:00,
2013-01-31 16:35:00,57.8,37.7,30.18,West,272,2.0,9.0,47,0.00,,---,0.17,VWS V14.01,2013-01-31 21:35:00,
2013-01-31 16:38:00,57.7,37.1,30.18,North,5,3.0,7.0,46,0.00,,---,0.17,VWS V14.01,2013-01-31 21:38:00,
2013-01-31 16:40:00,57.6,37.5,30.18,NW,324,0.0,9.0,47,0.00,,---,0.17,VWS V14.01,2013-01-31 21:40:00,
2013-01-31 16:41:00,57.6,37.5,30.18,NNW,343,2.0,3.0,47,0.00,,---,0.17,VWS V14.01,2013-01-31 21:41:00,
2013-01-31 16:42:00,57.7,38.2,30.18,North,5,3.0,4.0,48,0.00,,---,0.17,VWS V14.01,2013-01-31 21:42:00,
2013-01-31 16:43:00,57.7,37.6,30.18,North,360,3.0,8.0,47,0.00,,---,0.17,VWS V14.01,2013-01-31 21:43:00,
2013-01-31 16:46:00,57.8,37.2,30.18,NW,316,1.0,8.0,46,0.00,,---,0.17,VWS V14.01,2013-01-31 21:46:00,
2013-01-31 16:47:00,57.8,37.7,30.18,NNW,346,5.0,9.0,47,0.00,,---,0.17,VWS V14.01,2013-01-31 21:47:00,
2013-01-31 16:49:00,57.9,38.3,30.18,NNW,327,2.0,9.0,48,0.00,,---,0.17,VWS V14.01,2013-01-31 21:49:00,
2013-01-31 16:52:00,58.1,38.5,30.18,West,274,2.0,6.0,48,0.00,,---,0.17,VWS V14.01,2013-01-31 21:52:00,
2013-01-31 16:54:00,58.0,39.0,30.18,NW,309,4.0,9.0,49,0.00,,---,0.17,VWS V14.01,2013-01-31 21:54:00,
2013-01-31 16:57:00,57.8,37.2,30.19,WNW,302,1.0,5.0,46,0.00,,---,0.17,VWS V14.01,2013-01-31 21:57:00,
2013-01-31 16:58:00,57.8,37.2,30.18,NNW,337,4.0,5.0,46,0.00,,---,0.17,VWS V14.01,2013-01-31 21:58:00,
2013-01-31 17:00:00,57.7,37.6,30.18,WNW,302,4.0,8.0,47,0.00,,---,0.17,VWS V14.01,2013-01-31 22:00:00,
2013-01-31 17:01:00,57.6,37.5,30.18,WSW,251,2.0,4.0,47,0.00,,---,0.17,VWS V14.01,2013-01-31 22:01:00,
2013-01-31 17:04:00,57.5,38.0,30.18,NW,306,3.0,5.0,48,0.00,,---,0.17,VWS V14.01,2013-01-31 22:04:00,
2013-01-31 17:05:00,57.5,38.0,30.18,WNW,285,1.0,5.0,48,0.00,,---,0.17,VWS V14.01,2013-01-31 22:05:00,
2013-01-31 17:07:00,57.4,37.9,30.18,West,260,1.0,4.0,48,0.00,,---,0.17,VWS V14.01,2013-01-31 22:07:00,
2013-01-31 17:09:00,57.3,37.8,30.18,NW,313,1.0,4.0,48,0.00,,---,0.17,VWS V14.01,2013-01-31 22:09:00,
2013-01-31 17:10:00,57.3,37.8,30.18,NW,315,2.0,4.0,48,0.00,,---,0.17,VWS V14.01,2013-01-31 22:10:00,
2013-01-31 17:12:00,57.3,37.3,30.18,NW,319,0.0,3.0,47,0.00,,---,0.17,VWS V14.01,2013-01-31 22:12:00,
2013-01-31 17:13:00,57.3,37.8,30.18,NNW,340,2.0,3.0,48,0.00,,---,0.17,VWS V14.01,2013-01-31 22:13:00,
2013-01-31 17:15:00,57.3,37.8,30.18,SW,225,2.0,3.0,48,0.00,,---,0.17,VWS V14.01,2013-01-31 22:15:00,
2013-01-31 17:17:00,57.2,37.7,30.19,WSW,246,4.0,7.0,48,0.00,,---,0.17,VWS V14.01,2013-01-31 22:17:00,
2013-01-31 17:19:00,57.0,37.0,30.19,West,265,1.0,7.0,47,0.00,,---,0.17,VWS V14.01,2013-01-31 22:19:00,
2013-01-31 17:21:00,56.7,36.7,30.19,West,277,1.0,7.0,47,0.00,,---,0.17,VWS V14.01,2013-01-31 22:21:00,
2013-01-31 17:23:00,56.6,37.2,30.19,NNW,340,5.0,6.0,48,0.00,,---,0.17,VWS V14.01,2013-01-31 22:23:00,
2013-01-31 17:24:00,56.6,37.2,30.19,WNW,302,3.0,6.0,48,0.00,,---,0.17,VWS V14.01,2013-01-31 22:24:00,
2013-01-31 17:26:00,56.4,37.0,30.19,North,355,2.0,4.0,48,0.00,,---,0.17,VWS V14.01,2013-01-31 22:26:00,
2013-01-31 17:28:00,56.3,37.4,30.19,NW,313,1.0,5.0,49,0.00,,---,0.17,VWS V14.01,2013-01-31 22:28:00,
2013-01-31 17:30:00,56.3,36.9,30.19,NNW,327,1.0,5.0,48,0.00,,---,0.17,VWS V14.01,2013-01-31 22:30:00,
2013-01-31 17:32:00,56.3,36.9,30.19,North,355,4.0,4.0,48,0.00,,---,0.17,VWS V14.01,2013-01-31 22:32:00,
2013-01-31 17:33:00,56.2,36.8,30.19,WNW,302,2.0,4.0,48,0.00,,---,0.17,VWS V14.01,2013-01-31 22:33:00,
2013-01-31 17:34:00,56.2,36.8,30.19,NW,317,1.0,4.0,48,0.00,,---,0.17,VWS V14.01,2013-01-31 22:34:00,
2013-01-31 17:36:00,56.2,36.8,30.18,NNW,327,3.0,4.0,48,0.00,,---,0.17,VWS V14.01,2013-01-31 22:36:00,
2013-01-31 17:37:00,56.1,36.7,30.18,NW,322,1.0,9.0,48,0.00,,---,0.17,VWS V14.01,2013-01-31 22:37:00,
2013-01-31 17:38:00,56.0,36.6,30.18,NW,319,3.0,9.0,48,0.00,,---,0.17,VWS V14.01,2013-01-31 22:38:00,
2013-01-31 17:39:00,55.9,36.5,30.18,NW,305,3.0,9.0,48,0.00,,---,0.17,VWS V14.01,2013-01-31 22:39:00,
2013-01-31 17:41:00,55.7,35.8,30.18,NW,307,7.0,7.0,47,0.00,,---,0.17,VWS V14.01,2013-01-31 22:41:00,
2013-01-31 17:43:00,55.7,36.3,30.19,NNW,329,1.0,7.0,48,0.00,,---,0.17,VWS V14.01,2013-01-31 22:43:00,
2013-01-31 17:46:00,55.6,36.2,30.19,WNW,293,2.0,2.0,48,0.00,,---,0.17,VWS V14.01,2013-01-31 22:46:00,
2013-01-31 17:49:00,55.5,36.2,30.19,WNW,301,2.0,2.0,48,0.00,,---,0.17,VWS V14.01,2013-01-31 22:49:00,
2013-01-31 17:50:00,55.5,36.7,30.19,WNW,300,1.0,2.0,49,0.00,,---,0.17,VWS V14.01,2013-01-31 22:50:00,
2013-01-31 17:51:00,55.4,36.6,30.19,WNW,294,1.0,3.0,49,0.00,,---,0.17,VWS V14.01,2013-01-31 22:51:00,
2013-01-31 17:52:00,55.4,36.6,30.19,WNW,293,1.0,3.0,49,0.00,,---,0.17,VWS V14.01,2013-01-31 22:52:00,
2013-01-31 17:55:00,55.3,36.5,30.19,WNW,292,2.0,3.0,49,0.00,,---,0.17,VWS V14.01,2013-01-31 22:55:00,
2013-01-31 17:56:00,55.2,36.4,30.19,WNW,292,1.0,3.0,49,0.00,,---,0.17,VWS V14.01,2013-01-31 22:56:00,
2013-01-31 17:57:00,55.1,36.3,30.19,WNW,296,2.0,4.0,49,0.00,,---,0.17,VWS V14.01,2013-01-31 22:57:00,
2013-01-31 17:59:00,55.0,36.2,30.19,WNW,286,2.0,4.0,49,0.00,,---,0.17,VWS V14.01,2013-01-31 22:59:00,
2013-01-31 18:00:00,54.9,36.6,30.19,WNW,290,2.0,4.0,50,0.00,,---,0.17,VWS V14.01,2013-01-31 23:00:00,
2013-01-31 18:01:00,54.9,36.6,30.19,WNW,290,0.0,1.0,50,0.00,,---,0.17,VWS V14.01,2013-01-31 23:01:00,
2013-01-31 18:02:00,54.8,36.5,30.19,WNW,290,0.0,1.0,50,0.00,,---,0.17,VWS V14.01,2013-01-31 23:02:00,
2013-01-31 18:04:00,54.7,36.9,30.19,WNW,290,0.0,1.0,51,0.00,,---,0.17,VWS V14.01,2013-01-31 23:04:00,
2013-01-31 18:06:00,54.6,36.8,30.19,WNW,294,0.0,1.0,51,0.00,,---,0.17,VWS V14.01,2013-01-31 23:06:00,
2013-01-31 18:07:00,54.5,37.2,30.19,WNW,294,0.0,0.0,52,0.00,,---,0.17,VWS V14.01,2013-01-31 23:07:00,
2013-01-31 18:11:00,54.3,37.5,30.19,WNW,294,0.0,1.0,53,0.00,,---,0.17,VWS V14.01,2013-01-31 23:11:00,
2013-01-31 18:13:00,54.1,37.8,30.19,WNW,294,0.0,1.0,54,0.00,,---,0.17,VWS V14.01,2013-01-31 23:13:00,
2013-01-31 18:14:00,54.0,37.8,30.19,WNW,296,3.0,3.0,54,0.00,,---,0.17,VWS V14.01,2013-01-31 23:14:00,
2013-01-31 18:16:00,53.8,37.1,30.19,WNW,297,2.0,2.0,53,0.00,,---,0.17,VWS V14.01,2013-01-31 23:16:00,
2013-01-31 18:18:00,53.7,37.0,30.19,WNW,297,0.0,2.0,53,0.00,,---,0.17,VWS V14.01,2013-01-31 23:18:00,
2013-01-31 18:19:00,53.7,37.5,30.19,WNW,297,1.0,2.0,54,0.00,,---,0.17,VWS V14.01,2013-01-31 23:19:00,
2013-01-31 18:22:00,53.6,37.4,30.19,West,273,3.0,5.0,54,0.00,,---,0.17,VWS V14.01,2013-01-31 23:22:00,
2013-01-31 18:23:00,53.5,37.3,30.19,WSW,256,1.0,5.0,54,0.00,,---,0.17,VWS V14.01,2013-01-31 23:23:00,
2013-01-31 18:24:00,53.5,37.3,30.19,WSW,256,1.0,5.0,54,0.00,,---,0.17,VWS V14.01,2013-01-31 23:24:00,
2013-01-31 18:28:00,53.4,37.7,30.19,WNW,284,0.0,2.0,55,0.00,,---,0.17,VWS V14.01,2013-01-31 23:28:00,
2013-01-31 18:29:00,53.3,37.6,30.20,WNW,286,2.0,2.0,55,0.00,,---,0.17,VWS V14.01,2013-01-31 23:29:00,
2013-01-31 18:31:00,53.3,37.6,30.19,WNW,286,2.0,2.0,55,0.00,,---,0.17,VWS V14.01,2013-01-31 23:31:00,
2013-01-31 18:34:00,53.2,37.9,30.19,WNW,288,1.0,3.0,56,0.00,,---,0.17,VWS V14.01,2013-01-31 23:34:00,
2013-01-31 18:35:00,53.2,37.9,30.19,West,278,3.0,3.0,56,0.00,,---,0.17,VWS V14.01,2013-01-31 23:35:00,
2013-01-31 18:37:00,53.1,37.8,30.19,WNW,288,0.0,1.0,56,0.00,,---,0.17,VWS V14.01,2013-01-31 23:37:00,
2013-01-31 18:39:00,53.0,37.7,30.19,WNW,288,0.0,1.0,56,0.00,,---,0.17,VWS V14.01,2013-01-31 23:39:00,
2013-01-31 18:40:00,53.0,37.7,30.19,WNW,288,0.0,1.0,56,0.00,,---,0.17,VWS V14.01,2013-01-31 23:40:00,
2013-01-31 18:41:00,53.0,37.7,30.19,WNW,290,2.0,2.0,56,0.00,,---,0.17,VWS V14.01,2013-01-31 23:41:00,
2013-01-31 18:42:00,52.9,37.7,30.19,WNW,290,0.0,2.0,56,0.00,,---,0.17,VWS V14.01,2013-01-31 23:42:00,
2013-01-31 18:44:00,52.9,37.7,30.19,WNW,290,0.0,2.0,56,0.00,,---,0.17,VWS V14.01,2013-01-31 23:44:00,
2013-01-31 18:46:00,52.8,37.5,30.19,WNW,290,0.0,2.0,56,0.00,,---,0.17,VWS V14.01,2013-01-31 23:46:00,
2013-01-31 18:48:00,52.8,37.5,30.19,WNW,290,1.0,1.0,56,0.00,,---,0.17,VWS V14.01,2013-01-31 23:48:00,
2013-01-31 18:50:00,52.7,37.5,30.19,WNW,290,0.0,2.0,56,0.00,,---,0.17,VWS V14.01,2013-01-31 23:50:00,
2013-01-31 18:51:00,52.7,37.9,30.19,WNW,290,0.0,1.0,57,0.00,,---,0.17,VWS V14.01,2013-01-31 23:51:00,
2013-01-31 18:53:00,52.6,38.3,30.20,WNW,290,0.0,1.0,58,0.00,,---,0.17,VWS V14.01,2013-01-31 23:53:00,
2013-01-31 18:55:00,52.5,38.2,30.20,WNW,290,0.0,1.0,58,0.00,,---,0.17,VWS V14.01,2013-01-31 23:55:00,
2013-01-31 18:56:00,52.4,38.1,30.20,WNW,290,1.0,1.0,58,0.00,,---,0.17,VWS V14.01,2013-01-31 23:56:00,
2013-01-31 19:00:00,52.3,38.4,30.20,West,272,1.0,2.0,59,0.00,,---,0.17,VWS V14.01,2013-02-01 00:00:00,
2013-01-31 19:01:00,52.3,38.4,30.20,West,272,1.0,2.0,59,0.00,,---,0.17,VWS V14.01,2013-02-01 00:01:00,
2013-01-31 19:05:00,52.2,38.8,30.20,NNW,329,1.0,2.0,60,0.00,,---,0.17,VWS V14.01,2013-02-01 00:05:00,
2013-01-31 19:06:00,52.2,38.8,30.21,NNW,329,1.0,2.0,60,0.00,,---,0.17,VWS V14.01,2013-02-01 00:06:00,
2013-01-31 19:07:00,52.2,38.8,30.21,NNW,329,1.0,2.0,60,0.00,,---,0.17,VWS V14.01,2013-02-01 00:07:00,
2013-01-31 19:10:00,52.2,39.2,30.21,NNW,348,2.0,2.0,61,0.00,,---,0.17,VWS V14.01,2013-02-01 00:10:00,
2013-01-31 19:11:00,52.2,39.2,30.21,NW,315,5.0,6.0,61,0.00,,---,0.17,VWS V14.01,2013-02-01 00:11:00,
2013-01-31 19:12:00,52.2,39.2,30.21,NW,313,1.0,6.0,61,0.00,,---,0.17,VWS V14.01,2013-02-01 00:12:00,
2013-01-31 19:16:00,52.2,39.2,30.21,NNW,346,3.0,3.0,61,0.00,,---,0.17,VWS V14.01,2013-02-01 00:16:00,
2013-01-31 19:17:00,52.3,39.7,30.21,NNW,346,2.0,3.0,62,0.00,,---,0.17,VWS V14.01,2013-02-01 00:17:00,
2013-01-31 19:21:00,52.3,39.7,30.20,WNW,298,1.0,1.0,62,0.00,,---,0.17,VWS V14.01,2013-02-01 00:21:00,
2013-01-31 19:22:00,52.3,39.7,30.21,WNW,298,1.0,1.0,62,0.00,,---,0.17,VWS V14.01,2013-02-01 00:22:00,
2013-01-31 19:24:00,52.2,39.2,30.21,NNW,327,1.0,2.0,61,0.00,,---,0.17,VWS V14.01,2013-02-01 00:24:00,
2013-01-31 19:25:00,52.3,39.3,30.21,NW,326,1.0,2.0,61,0.00,,---,0.17,VWS V14.01,2013-02-01 00:25:00,
2013-01-31 19:27:00,52.3,39.7,30.21,NW,325,1.0,1.0,62,0.00,,---,0.17,VWS V14.01,2013-02-01 00:27:00,
2013-01-31 19:28:00,52.3,39.3,30.21,NW,325,0.0,1.0,61,0.00,,---,0.17,VWS V14.01,2013-02-01 00:28:00,
2013-01-31 19:30:00,52.3,39.7,30.21,NW,304,2.0,2.0,62,0.00,,---,0.17,VWS V14.01,2013-02-01 00:30:00,
2013-01-31 19:31:00,52.3,39.7,30.21,NW,304,0.0,2.0,62,0.00,,---,0.17,VWS V14.01,2013-02-01 00:31:00,
2013-01-31 19:33:00,52.3,39.3,30.21,NW,306,2.0,2.0,61,0.00,,---,0.17,VWS V14.01,2013-02-01 00:33:00,
2013-01-31 19:36:00,52.3,39.7,30.21,NW,304,0.0,3.0,62,0.00,,---,0.17,VWS V14.01,2013-02-01 00:36:00,
2013-01-31 19:38:00,52.3,39.7,30.21,NW,304,0.0,2.0,62,0.00,,---,0.17,VWS V14.01,2013-02-01 00:38:00,
2013-01-31 19:42:00,52.3,39.7,30.22,WNW,290,0.0,1.0,62,0.00,,---,0.17,VWS V14.01,2013-02-01 00:42:00,
2013-01-31 19:43:00,52.4,39.8,30.22,West,261,0.0,3.0,62,0.00,,---,0.17,VWS V14.01,2013-02-01 00:43:00,
2013-01-31 19:45:00,52.4,39.8,30.22,West,261,0.0,3.0,62,0.00,,---,0.17,VWS V14.01,2013-02-01 00:45:00,
2013-01-31 19:47:00,52.4,39.8,30.22,NW,310,1.0,2.0,62,0.00,,---,0.17,VWS V14.01,2013-02-01 00:47:00,
2013-01-31 19:49:00,52.5,39.9,30.22,WNW,303,1.0,2.0,62,0.00,,---,0.17,VWS V14.01,2013-02-01 00:49:00,
2013-01-31 19:50:00,52.5,39.9,30.22,West,276,1.0,3.0,62,0.00,,---,0.17,VWS V14.01,2013-02-01 00:50:00,
2013-01-31 19:52:00,52.5,39.9,30.22,WNW,298,2.0,3.0,62,0.00,,---,0.17,VWS V14.01,2013-02-01 00:52:00,
2013-01-31 19:55:00,52.6,40.0,30.22,NW,306,1.0,3.0,62,0.00,,---,0.17,VWS V14.01,2013-02-01 00:55:00,
2013-01-31 19:56:00,52.6,40.0,30.22,NW,306,1.0,1.0,62,0.00,,---,0.17,VWS V14.01,2013-02-01 00:56:00,
2013-01-31 19:58:00,52.5,39.9,30.22,NW,308,1.0,1.0,62,0.00,,---,0.17,VWS V14.01,2013-02-01 00:58:00,
2013-01-31 20:00:00,52.5,39.5,30.22,NW,308,1.0,1.0,61,0.00,,---,0.17,VWS V14.01,2013-02-01 01:00:00,
2013-01-31 20:01:00,52.5,39.5,30.22,NW,308,0.0,0.0,61,0.00,,---,0.17,VWS V14.01,2013-02-01 01:01:00,
2013-01-31 20:03:00,52.5,39.9,30.22,NW,308,0.0,1.0,62,0.00,,---,0.17,VWS V14.01,2013-02-01 01:03:00,
2013-01-31 20:04:00,52.5,39.9,30.22,West,264,2.0,2.0,62,0.00,,---,0.17,VWS V14.01,2013-02-01 01:04:00,
2013-01-31 20:05:00,52.4,39.8,30.22,WNW,298,2.0,3.0,62,0.00,,---,0.17,VWS V14.01,2013-02-01 01:05:00,
2013-01-31 20:06:00,52.4,39.8,30.22,NW,304,2.0,2.0,62,0.00,,---,0.17,VWS V14.01,2013-02-01 01:06:00,
2013-01-31 20:09:00,52.4,39.8,30.23,NW,304,0.0,2.0,62,0.00,,---,0.17,VWS V14.01,2013-02-01 01:09:00,
2013-01-31 20:11:00,52.4,39.8,30.23,NW,304,0.0,0.0,62,0.00,,---,0.17,VWS V14.01,2013-02-01 01:11:00,
2013-01-31 20:12:00,52.4,39.8,30.23,NW,306,2.0,2.0,62,0.00,,---,0.17,VWS V14.01,2013-02-01 01:12:00,
2013-01-31 20:14:00,52.4,39.8,30.23,NW,306,0.0,2.0,62,0.00,,---,0.17,VWS V14.01,2013-02-01 01:14:00,
2013-01-31 20:16:00,52.4,39.8,30.23,NW,306,0.0,1.0,62,0.00,,---,0.17,VWS V14.01,2013-02-01 01:16:00,
2013-01-31 20:17:00,52.3,39.7,30.23,NW,306,1.0,1.0,62,0.00,,---,0.17,VWS V14.01,2013-02-01 01:17:00,
2013-01-31 20:18:00,52.3,39.7,30.23,NW,326,0.0,2.0,62,0.00,,---,0.17,VWS V14.01,2013-02-01 01:18:00,
2013-01-31 20:19:00,52.3,39.7,30.23,NW,326,0.0,2.0,62,0.00,,---,0.17,VWS V14.01,2013-02-01 01:19:00,
2013-01-31 20:21:00,52.3,39.7,30.23,NW,326,0.0,2.0,62,0.00,,---,0.17,VWS V14.01,2013-02-01 01:21:00,
2013-01-31 20:23:00,52.3,39.7,30.23,NW,326,0.0,2.0,62,0.00,,---,0.17,VWS V14.01,2013-02-01 01:23:00,
2013-01-31 20:24:00,52.3,39.7,30.23,NW,326,0.0,2.0,62,0.00,,---,0.17,VWS V14.01,2013-02-01 01:24:00,
2013-01-31 20:25:00,52.3,39.7,30.23,NW,326,0.0,2.0,62,0.00,,---,0.17,VWS V14.01,2013-02-01 01:25:00,
2013-01-31 20:27:00,52.2,39.6,30.23,NW,310,2.0,2.0,62,0.00,,---,0.17,VWS V14.01,2013-02-01 01:27:00,
2013-01-31 20:28:00,52.2,39.6,30.23,NW,310,0.0,2.0,62,0.00,,---,0.17,VWS V14.01,2013-02-01 01:28:00,
2013-01-31 20:30:00,52.2,39.6,30.23,NW,310,1.0,2.0,62,0.00,,---,0.17,VWS V14.01,2013-02-01 01:30:00,
2013-01-31 20:31:00,52.2,39.6,30.23,NW,310,1.0,2.0,62,0.00,,---,0.17,VWS V14.01,2013-02-01 01:31:00,
2013-01-31 20:33:00,52.2,40.0,30.23,NW,310,0.0,1.0,63,0.00,,---,0.17,VWS V14.01,2013-02-01 01:33:00,
2013-01-31 20:35:00,52.1,39.9,30.23,NW,310,0.0,1.0,63,0.00,,---,0.17,VWS V14.01,2013-02-01 01:35:00,
2013-01-31 20:36:00,52.1,39.9,30.23,NW,310,1.0,1.0,63,0.00,,---,0.17,VWS V14.01,2013-02-01 01:36:00,
2013-01-31 20:38:00,52.1,39.9,30.23,NW,311,0.0,1.0,63,0.00,,---,0.17,VWS V14.01,2013-02-01 01:38:00,
2013-01-31 20:40:00,52.0,40.2,30.23,NW,311,0.0,2.0,64,0.00,,---,0.17,VWS V14.01,2013-02-01 01:40:00,
2013-01-31 20:41:00,52.1,40.3,30.23,NW,311,0.0,2.0,64,0.00,,---,0.17,VWS V14.01,2013-02-01 01:41:00,
2013-01-31 20:43:00,52.0,40.2,30.23,NW,311,0.0,0.0,64,0.00,,---,0.17,VWS V14.01,2013-02-01 01:43:00,
2013-01-31 20:44:00,52.0,40.2,30.23,NW,311,0.0,0.0,64,0.00,,---,0.17,VWS V14.01,2013-02-01 01:44:00,
2013-01-31 20:46:00,51.9,40.1,30.23,NW,311,0.0,1.0,64,0.00,,---,0.17,VWS V14.01,2013-02-01 01:46:00,
2013-01-31 20:48:00,51.9,40.1,30.23,NW,311,0.0,1.0,64,0.00,,---,0.17,VWS V14.01,2013-02-01 01:48:00,
2013-01-31 20:50:00,51.9,40.9,30.23,NW,311,0.0,1.0,66,0.00,,---,0.17,VWS V14.01,2013-02-01 01:50:00,
2013-01-31 20:52:00,51.8,40.4,30.23,NW,311,0.0,1.0,65,0.00,,---,0.17,VWS V14.01,2013-02-01 01:52:00,
2013-01-31 20:54:00,51.7,40.3,30.23,NW,311,0.0,1.0,65,0.00,,---,0.17,VWS V14.01,2013-02-01 01:54:00,
2013-01-31 20:55:00,51.6,40.2,30.23,NW,311,0.0,1.0,65,0.00,,---,0.17,VWS V14.01,2013-02-01 01:55:00,
2013-01-31 20:57:00,51.6,40.2,30.23,NW,311,0.0,0.0,65,0.00,,---,0.17,VWS V14.01,2013-02-01 01:57:00,
2013-01-31 20:58:00,51.6,40.2,30.23,NW,311,0.0,0.0,65,0.00,,---,0.17,VWS V14.01,2013-02-01 01:58:00,
2013-01-31 20:59:00,51.5,40.1,30.23,NW,311,0.0,0.0,65,0.00,,---,0.17,VWS V14.01,2013-02-01 01:59:00,
2013-01-31 21:01:00,51.5,40.1,30.23,NW,311,0.0,0.0,65,0.00,,---,0.17,VWS V14.01,2013-02-01 02:01:00,
2013-01-31 21:03:00,51.5,40.1,30.23,NW,311,0.0,1.0,65,0.00,,---,0.17,VWS V14.01,2013-02-01 02:03:00,
2013-01-31 21:04:00,51.5,40.1,30.23,NW,311,0.0,1.0,65,0.00,,---,0.17,VWS V14.01,2013-02-01 02:04:00,
2013-01-31 21:07:00,51.4,40.0,30.23,NW,311,0.0,1.0,65,0.00,,---,0.17,VWS V14.01,2013-02-01 02:07:00,
2013-01-31 21:09:00,51.4,40.4,30.24,NW,311,0.0,1.0,66,0.00,,---,0.17,VWS V14.01,2013-02-01 02:09:00,
2013-01-31 21:10:00,51.4,40.4,30.24,NW,311,0.0,1.0,66,0.00,,---,0.17,VWS V14.01,2013-02-01 02:10:00,
2013-01-31 21:13:00,51.3,40.3,30.24,NW,311,0.0,1.0,66,0.00,,---,0.17,VWS V14.01,2013-02-01 02:13:00,
2013-01-31 21:15:00,51.3,40.3,30.24,NW,323,1.0,2.0,66,0.00,,---,0.17,VWS V14.01,2013-02-01 02:15:00,
2013-01-31 21:16:00,51.3,40.3,30.24,NW,323,0.0,2.0,66,0.00,,---,0.17,VWS V14.01,2013-02-01 02:16:00,
2013-01-31 21:20:00,51.3,40.7,30.24,NW,323,0.0,0.0,67,0.00,,---,0.17,VWS V14.01,2013-02-01 02:20:00,
2013-01-31 21:21:00,51.2,40.6,30.24,NW,323,0.0,0.0,67,0.00,,---,0.17,VWS V14.01,2013-02-01 02:21:00,
2013-01-31 21:26:00,51.1,40.9,30.24,NW,323,0.0,0.0,68,0.00,,---,0.17,VWS V14.01,2013-02-01 02:26:00,
2013-01-31 21:27:00,51.0,40.8,30.24,NW,323,0.0,0.0,68,0.00,,---,0.17,VWS V14.01,2013-02-01 02:27:00,
2013-01-31 21:32:00,50.8,40.6,30.24,NW,323,0.0,0.0,68,0.00,,---,0.17,VWS V14.01,2013-02-01 02:32:00,
2013-01-31 21:34:00,50.7,40.9,30.24,NW,323,0.0,0.0,69,0.00,,---,0.17,VWS V14.01,2013-02-01 02:34:00,
2013-01-31 21:38:00,50.5,41.1,30.24,NW,323,0.0,0.0,70,0.00,,---,0.17,VWS V14.01,2013-02-01 02:38:00,
2013-01-31 21:39:00,50.4,41.0,30.24,NW,323,0.0,0.0,70,0.00,,---,0.17,VWS V14.01,2013-02-01 02:39:00,
2013-01-31 21:43:00,50.1,41.1,30.25,NW,323,0.0,0.0,71,0.00,,---,0.17,VWS V14.01,2013-02-01 02:43:00,
2013-01-31 21:44:00,50.0,41.0,30.24,NW,323,0.0,0.0,71,0.00,,---,0.17,VWS V14.01,2013-02-01 02:44:00,
2013-01-31 21:45:00,49.9,40.9,30.24,NW,323,0.0,0.0,71,0.00,,---,0.17,VWS V14.01,2013-02-01 02:45:00,
2013-01-31 21:49:00,49.7,41.0,30.24,NW,323,0.0,0.0,72,0.00,,---,0.17,VWS V14.01,2013-02-01 02:49:00,
2013-01-31 21:50:00,49.6,41.3,30.24,NW,323,0.0,0.0,73,0.00,,---,0.17,VWS V14.01,2013-02-01 02:50:00,
2013-01-31 21:52:00,49.5,41.6,30.24,NW,323,0.0,0.0,74,0.00,,---,0.17,VWS V14.01,2013-02-01 02:52:00,
2013-01-31 21:55:00,49.4,41.1,30.24,NW,323,0.0,0.0,73,0.00,,---,0.17,VWS V14.01,2013-02-01 02:55:00,
2013-01-31 21:56:00,49.2,40.9,30.24,NW,323,0.0,0.0,73,0.00,,---,0.17,VWS V14.01,2013-02-01 02:56:00,
2013-01-31 21:58:00,49.1,41.2,30.24,NW,323,0.0,0.0,74,0.00,,---,0.17,VWS V14.01,2013-02-01 02:58:00,
2013-01-31 22:00:00,49.0,41.1,30.23,NW,323,0.0,0.0,74,0.00,,---,0.17,VWS V14.01,2013-02-01 03:00:00,
2013-01-31 22:01:00,48.9,41.0,30.23,NW,323,0.0,0.0,74,0.00,,---,0.17,VWS V14.01,2013-02-01 03:01:00,
2013-01-31 22:02:00,48.8,40.9,30.23,NW,323,0.0,0.0,74,0.00,,---,0.17,VWS V14.01,2013-02-01 03:02:00,
2013-01-31 22:04:00,48.7,40.8,30.23,NW,323,0.0,0.0,74,0.00,,---,0.17,VWS V14.01,2013-02-01 03:04:00,
2013-01-31 22:05:00,48.6,40.7,30.23,NW,323,0.0,0.0,74,0.00,,---,0.17,VWS V14.01,2013-02-01 03:05:00,
2013-01-31 22:06:00,48.6,40.7,30.24,NW,323,0.0,0.0,74,0.00,,---,0.17,VWS V14.01,2013-02-01 03:06:00,
2013-01-31 22:07:00,48.5,40.6,30.24,NW,323,0.0,0.0,74,0.00,,---,0.17,VWS V14.01,2013-02-01 03:07:00,
2013-01-31 22:10:00,48.3,40.8,30.25,NW,323,0.0,0.0,75,0.00,,---,0.17,VWS V14.01,2013-02-01 03:10:00,
2013-01-31 22:11:00,48.3,40.8,30.25,NW,323,0.0,0.0,75,0.00,,---,0.17,VWS V14.01,2013-02-01 03:11:00,
2013-01-31 22:12:00,48.2,41.0,30.24,NW,323,0.0,0.0,76,0.00,,---,0.17,VWS V14.01,2013-02-01 03:12:00,
2013-01-31 22:13:00,48.2,41.0,30.24,NW,323,0.0,0.0,76,0.00,,---,0.17,VWS V14.01,2013-02-01 03:13:00,
2013-01-31 22:15:00,48.1,41.2,30.24,NNW,332,0.0,1.0,77,0.00,,---,0.17,VWS V14.01,2013-02-01 03:15:00,
2013-01-31 22:18:00,48.0,40.8,30.25,NNW,332,0.0,0.0,76,0.00,,---,0.17,VWS V14.01,2013-02-01 03:18:00,
2013-01-31 22:19:00,47.9,41.0,30.25,NNW,332,0.0,0.0,77,0.00,,---,0.17,VWS V14.01,2013-02-01 03:19:00,
2013-01-31 22:21:00,47.9,41.0,30.25,NNW,332,0.0,0.0,77,0.00,,---,0.17,VWS V14.01,2013-02-01 03:21:00,
2013-01-31 22:24:00,47.9,41.0,30.25,NNW,332,0.0,0.0,77,0.00,,---,0.17,VWS V14.01,2013-02-01 03:24:00,
2013-01-31 22:26:00,47.9,41.0,30.25,NNW,332,0.0,0.0,77,0.00,,---,0.17,VWS V14.01,2013-02-01 03:26:00,
2013-01-31 22:29:00,48.0,41.2,30.25,NNW,331,0.0,1.0,77,0.00,,---,0.17,VWS V14.01,2013-02-01 03:29:00,
2013-01-31 22:30:00,48.0,41.2,30.24,NNW,331,0.0,1.0,77,0.00,,---,0.17,VWS V14.01,2013-02-01 03:30:00,
2013-01-31 22:32:00,48.1,41.2,30.25,NNW,331,0.0,1.0,77,0.00,,---,0.17,VWS V14.01,2013-02-01 03:32:00,
2013-01-31 22:35:00,48.2,41.3,30.25,NNW,331,0.0,1.0,77,0.00,,---,0.17,VWS V14.01,2013-02-01 03:35:00,
2013-01-31 22:36:00,48.2,41.7,30.25,NNW,331,0.0,0.0,78,0.00,,---,0.17,VWS V14.01,2013-02-01 03:36:00,
2013-01-31 22:37:00,48.2,41.7,30.25,NNW,331,0.0,0.0,78,0.00,,---,0.17,VWS V14.01,2013-02-01 03:37:00,
2013-01-31 22:38:00,48.2,41.3,30.25,NNW,331,0.0,1.0,77,0.00,,---,0.17,VWS V14.01,2013-02-01 03:38:00,
2013-01-31 22:40:00,48.3,41.1,30.25,NNW,331,0.0,1.0,76,0.00,,---,0.17,VWS V14.01,2013-02-01 03:40:00,
2013-01-31 22:42:00,48.4,41.2,30.25,NNW,331,0.0,0.0,76,0.00,,---,0.17,VWS V14.01,2013-02-01 03:42:00,
2013-01-31 22:43:00,48.4,41.2,30.25,NNW,333,0.0,2.0,76,0.00,,---,0.17,VWS V14.01,2013-02-01 03:43:00,
2013-01-31 22:46:00,48.6,41.4,30.25,NNW,334,0.0,0.0,76,0.00,,---,0.17,VWS V14.01,2013-02-01 03:46:00,
2013-01-31 22:47:00,48.7,41.5,30.25,NNW,334,0.0,1.0,76,0.00,,---,0.17,VWS V14.01,2013-02-01 03:47:00,
2013-01-31 22:48:00,48.7,41.5,30.25,NNW,334,0.0,1.0,76,0.00,,---,0.17,VWS V14.01,2013-02-01 03:48:00,
2013-01-31 22:49:00,48.8,41.6,30.25,NNW,334,0.0,1.0,76,0.00,,---,0.17,VWS V14.01,2013-02-01 03:49:00,
2013-01-31 22:52:00,49.0,41.4,30.25,NNW,334,0.0,2.0,75,0.00,,---,0.17,VWS V14.01,2013-02-01 03:52:00,
2013-01-31 22:53:00,49.0,41.4,30.25,NNW,334,0.0,2.0,75,0.00,,---,0.17,VWS V14.01,2013-02-01 03:53:00,
2013-01-31 22:54:00,49.1,41.5,30.25,NNW,334,0.0,2.0,75,0.00,,---,0.17,VWS V14.01,2013-02-01 03:54:00,
2013-01-31 22:58:00,49.2,41.6,30.25,NNW,334,0.0,0.0,75,0.00,,---,0.17,VWS V14.01,2013-02-01 03:58:00,
2013-01-31 22:59:00,49.3,41.7,30.25,NNW,334,0.0,0.0,75,0.00,,---,0.17,VWS V14.01,2013-02-01 03:59:00,
2013-01-31 23:00:00,49.4,41.8,30.26,NNW,334,0.0,1.0,75,0.00,,---,0.17,VWS V14.01,2013-02-01 04:00:00,
2013-01-31 23:03:00,49.5,41.6,30.26,NNW,334,0.0,2.0,74,0.00,,---,0.17,VWS V14.01,2013-02-01 04:03:00,
2013-01-31 23:04:00,49.6,41.7,30.26,NNW,327,2.0,3.0,74,0.00,,---,0.17,VWS V14.01,2013-02-01 04:04:00,
2013-01-31 23:05:00,49.6,41.7,30.26,NW,326,2.0,3.0,74,0.00,,---,0.17,VWS V14.01,2013-02-01 04:05:00,
2013-01-31 23:07:00,49.7,42.1,30.26,NW,326,0.0,1.0,75,0.00,,---,0.17,VWS V14.01,2013-02-01 04:07:00,
2013-01-31 23:08:00,49.7,42.1,30.26,NW,326,0.0,1.0,75,0.00,,---,0.17,VWS V14.01,2013-02-01 04:08:00,
2013-01-31 23:10:00,49.7,41.8,30.26,NW,326,1.0,1.0,74,0.00,,---,0.17,VWS V14.01,2013-02-01 04:10:00,
2013-01-31 23:11:00,49.8,41.9,30.26,NW,326,0.0,0.0,74,0.00,,---,0.17,VWS V14.01,2013-02-01 04:11:00,
2013-01-31 23:12:00,49.8,41.9,30.26,NW,326,0.0,0.0,74,0.00,,---,0.17,VWS V14.01,2013-02-01 04:12:00,
2013-01-31 23:13:00,49.8,41.9,30.26,NW,326,0.0,0.0,74,0.00,,---,0.17,VWS V14.01,2013-02-01 04:13:00,
2013-01-31 23:16:00,49.9,42.0,30.26,NW,325,0.0,2.0,74,0.00,,---,0.17,VWS V14.01,2013-02-01 04:16:00,
2013-01-31 23:17:00,49.9,42.0,30.25,NW,325,0.0,1.0,74,0.00,,---,0.17,VWS V14.01,2013-02-01 04:17:00,
2013-01-31 23:18:00,49.9,42.0,30.25,NW,325,0.0,1.0,74,0.00,,---,0.17,VWS V14.01,2013-02-01 04:18:00,
2013-01-31 23:22:00,50.1,42.2,30.25,NNW,327,2.0,2.0,74,0.00,,---,0.17,VWS V14.01,2013-02-01 04:22:00,
2013-01-31 23:23:00,50.1,42.2,30.25,NNW,327,1.0,2.0,74,0.00,,---,0.17,VWS V14.01,2013-02-01 04:23:00,
2013-01-31 23:25:00,50.2,42.2,30.25,NNW,327,1.0,2.0,74,0.00,,---,0.17,VWS V14.01,2013-02-01 04:25:00,
2013-01-31 23:28:00,50.3,42.3,30.25,NNW,336,0.0,3.0,74,0.00,,---,0.17,VWS V14.01,2013-02-01 04:28:00,
2013-01-31 23:29:00,50.3,42.3,30.25,NNW,337,4.0,4.0,74,0.00,,---,0.17,VWS V14.01,2013-02-01 04:29:00,
2013-01-31 23:31:00,50.4,42.4,30.25,NNW,337,0.0,0.0,74,0.00,,---,0.17,VWS V14.01,2013-02-01 04:31:00,
2013-01-31 23:34:00,50.4,42.4,30.25,NNW,331,0.0,3.0,74,0.00,,---,0.17,VWS V14.01,2013-02-01 04:34:00,
2013-01-31 23:35:00,50.4,42.4,30.25,NNW,331,1.0,3.0,74,0.00,,---,0.17,VWS V14.01,2013-02-01 04:35:00,
2013-01-31 23:39:00,50.5,42.2,30.25,NNW,331,0.0,1.0,73,0.00,,---,0.17,VWS V14.01,2013-02-01 04:39:00,
2013-01-31 23:42:00,50.6,42.3,30.25,NNW,329,1.0,2.0,73,0.00,,---,0.17,VWS V14.01,2013-02-01 04:42:00,
2013-01-31 23:44:00,50.6,42.3,30.25,NNW,329,0.0,2.0,73,0.00,,---,0.17,VWS V14.01,2013-02-01 04:44:00,
2013-01-31 23:45:00,50.6,42.3,30.25,NNW,329,0.0,2.0,73,0.00,,---,0.17,VWS V14.01,2013-02-01 04:45:00,
2013-01-31 23:47:00,50.6,42.3,30.25,NNW,329,0.0,1.0,73,0.00,,---,0.17,VWS V14.01,2013-02-01 04:47:00,
2013-01-31 23:50:00,50.6,42.3,30.25,NNW,329,0.0,2.0,73,0.00,,---,0.17,VWS V14.01,2013-02-01 04:50:00,
2013-01-31 23:51:00,50.6,42.3,30.25,NNW,336,0.0,1.0,73,0.00,,---,0.17,VWS V14.01,2013-02-01 04:51:00,
2013-01-31 23:53:00,50.6,42.3,30.25,NNW,336,0.0,1.0,73,0.00,,---,0.17,VWS V14.01,2013-02-01 04:53:00,
2013-01-31 23:56:00,50.6,42.3,30.25,NW,325,3.0,3.0,73,0.00,,---,0.17,VWS V14.01,2013-02-01 04:56:00,
2013-01-31 23:58:00,50.6,42.3,30.25,NW,325,0.0,3.0,73,0.00,,---,0.17,VWS V14.01,2013-02-01 04:58:00,
2013-01-31 23:59:00,50.6,42.3,30.25,NW,325,1.0,3.0,73,0.00,,---,0.17,VWS V14.01,2013-02-01 04:59:00,